| time (UTC) | temp F | wind direction | speed MPH | gust MPH | rain 1hr in | rain 24hr in | rain mn in | humidity % | barometer mb |
| 20260507180505 | 52 | 136 | 1.0 | 2.0 | 0.00 | 0.00 | 0.00 | 53 | 1015.7 |
| 20260507180405 | 52 | 136 | 1.0 | 4.0 | 0.00 | 0.00 | 0.00 | 53 | 1015.6 |
| 20260507180318 | 52 | 137 | 1.0 | 4.0 | 0.00 | 0.00 | 0.00 | 53 | 1015.6 |
| 20260507180306 | 52 | 138 | 1.0 | 4.0 | 0.00 | 0.00 | 0.00 | 53 | 1015.4 |
| 20260507180206 | 52 | 143 | 1.0 | 4.0 | 0.00 | 0.00 | 0.00 | 53 | 1015.5 |
| 20260507180005 | 52 | 143 | 1.0 | 4.0 | 0.00 | 0.00 | 0.00 | 53 | 1015.3 |
| 20260507175904 | 52 | 146 | 1.0 | 4.0 | 0.00 | 0.00 | 0.00 | 53 | 1015.3 |
| 20260507175821 | 52 | 148 | 1.0 | 4.0 | 0.00 | 0.00 | 0.00 | 53 | 1015.3 |
| 20260507175804 | 52 | 149 | 1.0 | 4.0 | 0.00 | 0.00 | 0.00 | 53 | 1015.4 |
| 20260507175706 | 52 | 150 | 2.0 | 4.0 | 0.00 | 0.00 | 0.00 | 53 | 1015.2 |
| 20260507175506 | 53 | 163 | 2.0 | 4.0 | 0.00 | 0.00 | 0.00 | 53 | 1015.3 |
| 20260507175420 | 53 | 165 | 2.0 | 4.0 | 0.00 | 0.00 | 0.00 | 53 | 1015.3 |
| 20260507175405 | 53 | 167 | 2.0 | 4.0 | 0.00 | 0.00 | 0.00 | 53 | 1015.1 |
| 20260507175307 | 53 | 176 | 2.0 | 4.0 | 0.00 | 0.00 | 0.00 | 53 | 1015.2 |
| 20260507175105 | 53 | 187 | 2.0 | 6.0 | 0.00 | 0.00 | 0.00 | 53 | 1015.3 |
| 20260507175006 | 53 | 192 | 2.0 | 6.0 | 0.00 | 0.00 | 0.00 | 53 | 1015.3 |
| 20260507174906 | 53 | 198 | 2.0 | 6.0 | 0.00 | 0.00 | 0.00 | 53 | 1015.4 |
| 20260507174806 | 53 | 204 | 2.0 | 6.0 | 0.00 | 0.00 | 0.00 | 53 | 1015.1 |
| 20260507174705 | 53 | 208 | 1.0 | 6.0 | 0.00 | 0.00 | 0.00 | 53 | 1015.1 |
| 20260507174606 | 53 | 210 | 2.0 | 6.0 | 0.00 | 0.00 | 0.00 | 53 | 1015.3 |
| 20260507174521 | 53 | 215 | 2.0 | 6.0 | 0.00 | 0.00 | 0.00 | 53 | 1015.3 |
| 20260507174505 | 53 | 217 | 2.0 | 6.0 | 0.00 | 0.00 | 0.00 | 53 | 1015.3 |
| 20260507174405 | 53 | 220 | 2.0 | 7.0 | 0.00 | 0.00 | 0.00 | 53 | 1015.3 |
| 20260507174204 | 53 | 220 | 2.0 | 8.0 | 0.00 | 0.00 | 0.00 | 53 | 1015.2 |
| 20260507174106 | 53 | 222 | 2.0 | 8.0 | 0.00 | 0.00 | 0.00 | 53 | 1015.2 |
| 20260507174020 | 53 | 226 | 2.0 | 9.0 | 0.00 | 0.00 | 0.00 | 53 | 1015.2 |
| 20260507174004 | 53 | 227 | 2.0 | 9.0 | 0.00 | 0.00 | 0.00 | 54 | 1015.3 |
| 20260507173906 | 53 | 229 | 2.0 | 9.0 | 0.00 | 0.00 | 0.00 | 54 | 1015.3 |
| 20260507173704 | 53 | 232 | 3.0 | 9.0 | 0.00 | 0.00 | 0.00 | 54 | 1015.3 |
| 20260507173605 | 53 | 235 | 3.0 | 9.0 | 0.00 | 0.00 | 0.00 | 53 | 1015.1 |
| 20260507173504 | 53 | 233 | 3.0 | 9.0 | 0.00 | 0.00 | 0.00 | 53 | 1015.4 |
| 20260507173405 | 53 | 236 | 3.0 | 9.0 | 0.00 | 0.00 | 0.00 | 54 | 1015.1 |
| 20260507173306 | 53 | 235 | 3.0 | 9.0 | 0.00 | 0.00 | 0.00 | 54 | 1015.1 |
| 20260507173205 | 53 | 238 | 3.0 | 9.0 | 0.00 | 0.00 | 0.00 | 54 | 1015.1 |
| 20260507173106 | 53 | 237 | 3.0 | 9.0 | 0.00 | 0.00 | 0.00 | 54 | 1015.1 |
| 20260507173006 | 53 | 234 | 3.0 | 9.0 | 0.00 | 0.00 | 0.00 | 54 | 1015.0 |
| 20260507172905 | 53 | 229 | 3.0 | 9.0 | 0.00 | 0.00 | 0.00 | 54 | 1015.1 |
| 20260507172805 | 53 | 229 | 3.0 | 9.0 | 0.00 | 0.00 | 0.00 | 54 | 1015.1 |
| 20260507172706 | 53 | 225 | 3.0 | 8.0 | 0.00 | 0.00 | 0.00 | 55 | 1014.9 |
| 20260507172620 | 53 | 222 | 3.0 | 8.0 | 0.00 | 0.00 | 0.00 | 55 | 1014.9 |
| 20260507172605 | 53 | 222 | 3.0 | 8.0 | 0.00 | 0.00 | 0.00 | 55 | 1015.0 |
| 20260507172505 | 53 | 220 | 3.0 | 8.0 | 0.00 | 0.00 | 0.00 | 55 | 1015.1 |
| 20260507172307 | 53 | 220 | 3.0 | 8.0 | 0.00 | 0.00 | 0.00 | 55 | 1015.1 |
| 20260507172205 | 53 | 217 | 3.0 | 8.0 | 0.00 | 0.00 | 0.00 | 55 | 1015.2 |
| 20260507172106 | 53 | 216 | 3.0 | 8.0 | 0.00 | 0.00 | 0.00 | 55 | 1015.3 |
| 20260507172004 | 53 | 217 | 3.0 | 10.0 | 0.00 | 0.00 | 0.00 | 56 | 1015.2 |
| 20260507171905 | 53 | 218 | 3.0 | 10.0 | 0.00 | 0.00 | 0.00 | 55 | 1015.2 |
| 20260507171804 | 53 | 220 | 3.0 | 10.0 | 0.00 | 0.00 | 0.00 | 55 | 1015.3 |
| 20260507171706 | 53 | 222 | 3.0 | 10.0 | 0.00 | 0.00 | 0.00 | 55 | 1015.2 |
| 20260507171604 | 53 | 226 | 3.0 | 10.0 | 0.00 | 0.00 | 0.00 | 55 | 1015.1 |
| 20260507171504 | 53 | 230 | 3.0 | 10.0 | 0.00 | 0.00 | 0.00 | 56 | 1015.3 |
| 20260507171404 | 53 | 228 | 3.0 | 10.0 | 0.00 | 0.00 | 0.00 | 56 | 1015.1 |
| 20260507171304 | 53 | 226 | 3.0 | 10.0 | 0.00 | 0.00 | 0.00 | 56 | 1015.3 |
| 20260507171205 | 53 | 224 | 3.0 | 10.0 | 0.00 | 0.00 | 0.00 | 56 | 1015.2 |
| 20260507171106 | 53 | 226 | 3.0 | 10.0 | 0.00 | 0.00 | 0.00 | 56 | 1015.2 |
| 20260507171006 | 53 | 229 | 2.0 | 10.0 | 0.00 | 0.00 | 0.00 | 56 | 1015.2 |
| 20260507170905 | 52 | 229 | 2.0 | 7.0 | 0.00 | 0.00 | 0.00 | 56 | 1015.4 |
| 20260507170805 | 52 | 222 | 2.0 | 7.0 | 0.00 | 0.00 | 0.00 | 56 | 1015.2 |
| 20260507170704 | 52 | 218 | 2.0 | 7.0 | 0.00 | 0.00 | 0.00 | 56 | 1015.3 |
| 20260507170605 | 52 | 207 | 2.0 | 6.0 | 0.00 | 0.00 | 0.00 | 56 | 1015.5 |
| 20260507170506 | 52 | 198 | 2.0 | 6.0 | 0.00 | 0.00 | 0.00 | 57 | 1015.5 |
| 20260507170404 | 52 | 198 | 1.0 | 6.0 | 0.00 | 0.00 | 0.00 | 57 | 1015.2 |
| 20260507170306 | 52 | 199 | 1.0 | 6.0 | 0.00 | 0.00 | 0.00 | 57 | 1015.4 |
| 20260507170205 | 52 | 203 | 1.0 | 6.0 | 0.00 | 0.00 | 0.00 | 57 | 1015.3 |
| 20260507170105 | 52 | 197 | 1.0 | 6.0 | 0.00 | 0.00 | 0.00 | 57 | 1015.5 |
| 20260507170005 | 52 | 188 | 1.0 | 4.0 | 0.00 | 0.00 | 0.00 | 57 | 1015.4 |
| 20260507165904 | 52 | 189 | 1.0 | 4.0 | 0.00 | 0.00 | 0.00 | 57 | 1015.4 |
| 20260507165819 | 52 | 192 | 1.0 | 3.0 | 0.00 | 0.00 | 0.00 | 57 | 1015.4 |
| 20260507165805 | 52 | 191 | 1.0 | 3.0 | 0.00 | 0.00 | 0.00 | 57 | 1015.3 |
| 20260507165705 | 52 | 189 | 1.0 | 3.0 | 0.00 | 0.00 | 0.00 | 57 | 1015.3 |
| 20260507165505 | 52 | 187 | 1.0 | 2.0 | 0.00 | 0.00 | 0.00 | 57 | 1015.2 |
| 20260507165405 | 52 | 181 | 1.0 | 2.0 | 0.00 | 0.00 | 0.00 | 57 | 1015.3 |
| 20260507165320 | 52 | 177 | 1.0 | 2.0 | 0.00 | 0.00 | 0.00 | 57 | 1015.3 |
| 20260507165306 | 53 | 175 | 1.0 | 2.0 | 0.00 | 0.00 | 0.00 | 57 | 1015.4 |
| 20260507165206 | 53 | 170 | 1.0 | 2.0 | 0.00 | 0.00 | 0.00 | 57 | 1015.3 |
| 20260507165005 | 53 | 164 | 1.0 | 3.0 | 0.00 | 0.00 | 0.00 | 57 | 1015.1 |
| 20260507164904 | 53 | 159 | 1.0 | 4.0 | 0.00 | 0.00 | 0.00 | 57 | 1015.2 |
| 20260507164805 | 53 | 157 | 1.0 | 4.0 | 0.00 | 0.00 | 0.00 | 57 | 1015.3 |
| 20260507164704 | 53 | 156 | 1.0 | 4.0 | 0.00 | 0.00 | 0.00 | 57 | 1015.2 |
| 20260507164605 | 53 | 153 | 1.0 | 4.0 | 0.00 | 0.00 | 0.00 | 57 | 1015.4 |
| 20260507164505 | 53 | 148 | 1.0 | 4.0 | 0.00 | 0.00 | 0.00 | 57 | 1015.2 |
| 20260507164404 | 53 | 150 | 1.0 | 4.0 | 0.00 | 0.00 | 0.00 | 57 | 1015.7 |
| 20260507164304 | 53 | 146 | 1.0 | 4.0 | 0.00 | 0.00 | 0.00 | 57 | 1015.4 |
| 20260507164205 | 53 | 147 | 2.0 | 4.0 | 0.00 | 0.00 | 0.00 | 57 | 1015.4 |
| 20260507164105 | 53 | 148 | 2.0 | 4.0 | 0.00 | 0.00 | 0.00 | 57 | 1015.5 |
| 20260507164006 | 53 | 148 | 2.0 | 4.0 | 0.00 | 0.00 | 0.00 | 57 | 1015.3 |
| 20260507163905 | 53 | 150 | 1.0 | 3.0 | 0.00 | 0.00 | 0.00 | 57 | 1015.4 |
| 20260507163805 | 53 | 151 | 1.0 | 3.0 | 0.00 | 0.00 | 0.00 | 57 | 1015.3 |
| 20260507163704 | 53 | 150 | 2.0 | 3.0 | 0.00 | 0.00 | 0.00 | 57 | 1015.3 |
| 20260507163605 | 53 | 148 | 2.0 | 3.0 | 0.00 | 0.00 | 0.00 | 57 | 1015.2 |
| 20260507163505 | 53 | 151 | 2.0 | 3.0 | 0.00 | 0.00 | 0.00 | 57 | 1015.5 |
| 20260507163419 | 53 | 155 | 2.0 | 3.0 | 0.00 | 0.00 | 0.00 | 57 | 1015.5 |
| 20260507163404 | 53 | 154 | 2.0 | 3.0 | 0.00 | 0.00 | 0.00 | 57 | 1015.3 |
| 20260507163305 | 53 | 159 | 2.0 | 3.0 | 0.00 | 0.00 | 0.00 | 57 | 1015.2 |
| 20260507163220 | 53 | 159 | 2.0 | 3.0 | 0.00 | 0.00 | 0.00 | 57 | 1015.2 |
| 20260507163105 | 53 | 165 | 2.0 | 4.0 | 0.00 | 0.00 | 0.00 | 57 | 1015.5 |
| 20260507162905 | 53 | 161 | 1.0 | 4.0 | 0.00 | 0.00 | 0.00 | 57 | 1015.4 |
| 20260507162805 | 53 | 161 | 1.0 | 4.0 | 0.00 | 0.00 | 0.00 | 57 | 1015.3 |
| 20260507162719 | 53 | 162 | 1.0 | 4.0 | 0.00 | 0.00 | 0.00 | 57 | 1015.3 |
| 20260507162706 | 53 | 163 | 1.0 | 4.0 | 0.00 | 0.00 | 0.00 | 57 | 1015.3 |
| 20260507162604 | 54 | 176 | 1.0 | 4.0 | 0.00 | 0.00 | 0.00 | 57 | 1015.3 |
| 20260507162405 | 54 | 178 | 1.0 | 4.0 | 0.00 | 0.00 | 0.00 | 57 | 1015.2 |
| 20260507162307 | 54 | 184 | 2.0 | 4.0 | 0.00 | 0.00 | 0.00 | 57 | 1015.3 |
| 20260507162205 | 54 | 187 | 1.0 | 4.0 | 0.00 | 0.00 | 0.00 | 57 | 1015.2 |
| 20260507162121 | 54 | 187 | 1.0 | 4.0 | 0.00 | 0.00 | 0.00 | 57 | 1015.2 |
| 20260507162105 | 54 | 188 | 1.0 | 4.0 | 0.00 | 0.00 | 0.00 | 57 | 1015.4 |
| 20260507162005 | 54 | 193 | 1.0 | 4.0 | 0.00 | 0.00 | 0.00 | 57 | 1015.1 |
| 20260507161805 | 54 | 205 | 1.0 | 4.0 | 0.00 | 0.00 | 0.00 | 57 | 1015.0 |
| 20260507161706 | 54 | 204 | 1.0 | 4.0 | 0.00 | 0.00 | 0.00 | 57 | 1015.1 |
| 20260507161606 | 54 | 202 | 1.0 | 4.0 | 0.00 | 0.00 | 0.00 | 57 | 1015.3 |
| 20260507161506 | 54 | 208 | 1.0 | 4.0 | 0.00 | 0.00 | 0.00 | 57 | 1015.0 |
| 20260507161406 | 54 | 209 | 1.0 | 4.0 | 0.00 | 0.00 | 0.00 | 57 | 1015.2 |
| 20260507161320 | 54 | 205 | 1.0 | 3.0 | 0.00 | 0.00 | 0.00 | 58 | 1015.2 |
| 20260507161306 | 54 | 204 | 1.0 | 3.0 | 0.00 | 0.00 | 0.00 | 58 | 1015.0 |
| 20260507161220 | 54 | 198 | 1.0 | 4.0 | 0.00 | 0.00 | 0.00 | 58 | 1015.0 |
| 20260507161206 | 54 | 198 | 1.0 | 4.0 | 0.00 | 0.00 | 0.00 | 58 | 1015.2 |
| 20260507160920 | 54 | 184 | 1.0 | 4.0 | 0.00 | 0.00 | 0.00 | 58 | 1015.2 |
| 20260507160906 | 54 | 184 | 1.0 | 4.0 | 0.00 | 0.00 | 0.00 | 58 | 1015.1 |
| 20260507160806 | 54 | 179 | 1.0 | 4.0 | 0.00 | 0.00 | 0.00 | 58 | 1015.3 |
| 20260507160605 | 54 | 177 | 1.0 | 4.0 | 0.00 | 0.00 | 0.00 | 58 | 1015.3 |
| 20260507160504 | 54 | 171 | 1.0 | 4.0 | 0.00 | 0.00 | 0.00 | 58 | 1015.1 |
| 20260507160419 | 54 | 168 | 1.0 | 4.0 | 0.00 | 0.00 | 0.00 | 58 | 1015.1 |
| 20260507160405 | 54 | 168 | 1.0 | 4.0 | 0.00 | 0.00 | 0.00 | 58 | 1015.2 |
| 20260507160305 | 54 | 168 | 1.0 | 4.0 | 0.00 | 0.00 | 0.00 | 57 | 1015.1 |
| 20260507160105 | 54 | 172 | 1.0 | 3.0 | 0.00 | 0.00 | 0.00 | 58 | 1015.3 |
| 20260507160005 | 54 | 167 | 1.0 | 4.0 | 0.00 | 0.00 | 0.00 | 58 | 1015.0 |
| 20260507155905 | 55 | 168 | 1.0 | 4.0 | 0.00 | 0.00 | 0.00 | 58 | 1015.1 |
| 20260507155806 | 55 | 165 | 1.0 | 4.0 | 0.00 | 0.00 | 0.00 | 58 | 1015.3 |
| 20260507155706 | 55 | 167 | 1.0 | 4.0 | 0.00 | 0.00 | 0.00 | 59 | 1015.2 |
| 20260507155605 | 55 | 170 | 1.0 | 4.0 | 0.00 | 0.00 | 0.00 | 58 | 1015.0 |
| 20260507155505 | 55 | 177 | 1.0 | 6.0 | 0.00 | 0.00 | 0.00 | 58 | 1015.0 |
| 20260507155421 | 55 | 185 | 1.0 | 6.0 | 0.00 | 0.00 | 0.00 | 58 | 1015.0 |
| 20260507155405 | 55 | 188 | 2.0 | 6.0 | 0.00 | 0.00 | 0.00 | 58 | 1015.1 |
| 20260507155306 | 55 | 196 | 2.0 | 8.0 | 0.00 | 0.00 | 0.00 | 58 | 1015.1 |
| 20260507155104 | 55 | 198 | 2.0 | 8.0 | 0.00 | 0.00 | 0.00 | 59 | 1015.1 |
| 20260507155021 | 55 | 203 | 2.0 | 8.0 | 0.00 | 0.00 | 0.00 | 59 | 1015.1 |
| 20260507155006 | 55 | 206 | 2.0 | 8.0 | 0.00 | 0.00 | 0.00 | 59 | 1015.0 |
| 20260507154904 | 55 | 211 | 2.0 | 8.0 | 0.00 | 0.00 | 0.00 | 59 | 1015.1 |
| 20260507154720 | 55 | 213 | 2.0 | 8.0 | 0.00 | 0.00 | 0.00 | 59 | 1015.0 |
| 20260507154706 | 55 | 214 | 2.0 | 8.0 | 0.00 | 0.00 | 0.00 | 59 | 1014.9 |
| 20260507154606 | 55 | 212 | 2.0 | 8.0 | 0.00 | 0.00 | 0.00 | 59 | 1015.1 |
| 20260507154406 | 55 | 212 | 2.0 | 8.0 | 0.00 | 0.00 | 0.00 | 59 | 1015.1 |
| 20260507154306 | 55 | 212 | 2.0 | 8.0 | 0.00 | 0.00 | 0.00 | 60 | 1015.0 |
| 20260507154220 | 55 | 214 | 2.0 | 8.0 | 0.00 | 0.00 | 0.00 | 60 | 1015.0 |
| 20260507154205 | 55 | 214 | 2.0 | 8.0 | 0.00 | 0.00 | 0.00 | 60 | 1015.1 |
| 20260507154119 | 55 | 216 | 2.0 | 8.0 | 0.00 | 0.00 | 0.00 | 60 | 1015.1 |
| 20260507154106 | 55 | 217 | 2.0 | 8.0 | 0.00 | 0.00 | 0.00 | 60 | 1015.1 |
| 20260507153806 | 55 | 216 | 1.0 | 8.0 | 0.00 | 0.00 | 0.00 | 60 | 1015.2 |
| 20260507153707 | 55 | 223 | 1.0 | 8.0 | 0.00 | 0.00 | 0.00 | 60 | 1015.0 |
| 20260507153606 | 55 | 236 | 1.0 | 8.0 | 0.00 | 0.00 | 0.00 | 60 | 1015.1 |
| 20260507153505 | 55 | 242 | 1.0 | 8.0 | 0.00 | 0.00 | 0.00 | 60 | 1015.1 |
| 20260507153405 | 55 | 250 | 1.0 | 4.0 | 0.00 | 0.00 | 0.00 | 60 | 1015.1 |
| 20260507153305 | 55 | 240 | 1.0 | 4.0 | 0.00 | 0.00 | 0.00 | 60 | 1015.0 |
| 20260507153205 | 55 | 228 | 1.0 | 4.0 | 0.00 | 0.00 | 0.00 | 60 | 1015.0 |
| 20260507153106 | 55 | 218 | 1.0 | 4.0 | 0.00 | 0.00 | 0.00 | 60 | 1015.3 |
| 20260507153005 | 55 | 212 | 1.0 | 4.0 | 0.00 | 0.00 | 0.00 | 60 | 1015.2 |
| 20260507152905 | 55 | 202 | 1.0 | 4.0 | 0.00 | 0.00 | 0.00 | 60 | 1015.1 |
| 20260507152804 | 55 | 174 | 1.0 | 3.0 | 0.00 | 0.00 | 0.00 | 60 | 1015.2 |
| 20260507152706 | 55 | 165 | 1.0 | 3.0 | 0.00 | 0.00 | 0.00 | 60 | 1015.1 |
| 20260507152605 | 55 | 174 | 1.0 | 3.0 | 0.00 | 0.00 | 0.00 | 61 | 1014.9 |
| 20260507152520 | 55 | 178 | 1.0 | 3.0 | 0.00 | 0.00 | 0.00 | 60 | 1014.9 |
| 20260507152507 | 55 | 179 | 1.0 | 3.0 | 0.00 | 0.00 | 0.00 | 60 | 1015.1 |
| 20260507152404 | 55 | 177 | 1.0 | 3.0 | 0.00 | 0.00 | 0.00 | 60 | 1015.0 |
| 20260507152206 | 56 | 173 | 1.0 | 3.0 | 0.00 | 0.00 | 0.00 | 61 | 1015.2 |
| 20260507152105 | 56 | 188 | 1.0 | 3.0 | 0.00 | 0.00 | 0.00 | 61 | 1015.1 |
| 20260507152005 | 56 | 191 | 1.0 | 3.0 | 0.00 | 0.00 | 0.00 | 60 | 1015.0 |
| 20260507151906 | 56 | 193 | 1.0 | 3.0 | 0.00 | 0.00 | 0.00 | 60 | 1015.1 |
| 20260507151805 | 56 | 205 | 1.0 | 3.0 | 0.00 | 0.00 | 0.00 | 60 | 1015.2 |
| 20260507151705 | 56 | 218 | 1.0 | 2.0 | 0.00 | 0.00 | 0.00 | 60 | 1015.0 |
| 20260507151606 | 56 | 224 | 0.0 | 2.0 | 0.00 | 0.00 | 0.00 | 60 | 1015.0 |
| 20260507151505 | 56 | 229 | 0.0 | 2.0 | 0.00 | 0.00 | 0.00 | 60 | 1015.2 |
| 20260507151406 | 56 | 234 | 1.0 | 2.0 | 0.00 | 0.00 | 0.00 | 60 | 1015.1 |
| 20260507151305 | 56 | 235 | 1.0 | 2.0 | 0.00 | 0.00 | 0.00 | 60 | 1015.1 |
| 20260507151206 | 56 | 240 | 1.0 | 3.0 | 0.00 | 0.00 | 0.00 | 60 | 1015.1 |
| 20260507151104 | 56 | 245 | 1.0 | 6.0 | 0.00 | 0.00 | 0.00 | 61 | 1015.1 |
| 20260507151021 | 56 | 247 | 1.0 | 6.0 | 0.00 | 0.00 | 0.00 | 61 | 1015.1 |
| 20260507151006 | 56 | 248 | 1.0 | 6.0 | 0.00 | 0.00 | 0.00 | 61 | 1015.0 |
| 20260507150906 | 56 | 247 | 1.0 | 6.0 | 0.00 | 0.00 | 0.00 | 61 | 1015.1 |
| 20260507150721 | 56 | 241 | 1.0 | 6.0 | 0.00 | 0.00 | 0.00 | 61 | 1015.2 |
| 20260507150705 | 56 | 240 | 1.0 | 6.0 | 0.00 | 0.00 | 0.00 | 61 | 1015.0 |
| 20260507150606 | 56 | 238 | 1.0 | 6.0 | 0.00 | 0.00 | 0.00 | 61 | 1015.0 |
| 20260507150406 | 56 | 232 | 1.0 | 6.0 | 0.00 | 0.00 | 0.00 | 61 | 1015.0 |
| 20260507150304 | 56 | 230 | 2.0 | 6.0 | 0.00 | 0.00 | 0.00 | 61 | 1014.9 |
| 20260507150206 | 56 | 227 | 2.0 | 6.0 | 0.00 | 0.00 | 0.00 | 61 | 1015.1 |
| 20260507150105 | 56 | 221 | 2.0 | 6.0 | 0.00 | 0.00 | 0.00 | 60 | 1014.9 |
| 20260507150006 | 56 | 218 | 2.0 | 6.0 | 0.00 | 0.00 | 0.00 | 60 | 1015.4 |
| 20260507145906 | 56 | 217 | 2.0 | 6.0 | 0.00 | 0.00 | 0.00 | 60 | 1015.0 |
| 20260507145820 | 56 | 219 | 2.0 | 6.0 | 0.00 | 0.00 | 0.00 | 61 | 1015.0 |
| 20260507145805 | 56 | 219 | 2.0 | 6.0 | 0.00 | 0.00 | 0.00 | 61 | 1015.1 |
| 20260507145705 | 56 | 220 | 1.0 | 6.0 | 0.00 | 0.00 | 0.00 | 60 | 1015.2 |
| 20260507145506 | 56 | 215 | 2.0 | 6.0 | 0.00 | 0.00 | 0.00 | 60 | 1015.2 |
| 20260507145418 | 56 | 216 | 2.0 | 6.0 | 0.00 | 0.00 | 0.00 | 61 | 1015.2 |
| 20260507145405 | 56 | 217 | 2.0 | 6.0 | 0.00 | 0.00 | 0.00 | 61 | 1015.2 |
| 20260507145319 | 56 | 218 | 1.0 | 6.0 | 0.00 | 0.00 | 0.00 | 61 | 1015.2 |
| 20260507145307 | 56 | 218 | 1.0 | 6.0 | 0.00 | 0.00 | 0.00 | 61 | 1015.1 |
| 20260507145006 | 57 | 220 | 1.0 | 3.0 | 0.00 | 0.00 | 0.00 | 61 | 1015.1 |
| 20260507144906 | 57 | 213 | 1.0 | 3.0 | 0.00 | 0.00 | 0.00 | 61 | 1015.0 |
| 20260507144806 | 57 | 204 | 1.0 | 3.0 | 0.00 | 0.00 | 0.00 | 61 | 1015.2 |
| 20260507144706 | 57 | 192 | 1.0 | 4.0 | 0.00 | 0.00 | 0.00 | 61 | 1015.2 |
| 20260507144606 | 57 | 185 | 1.0 | 4.0 | 0.00 | 0.00 | 0.00 | 61 | 1015.2 |
| 20260507144506 | 57 | 177 | 1.0 | 4.0 | 0.00 | 0.00 | 0.00 | 61 | 1015.3 |
| 20260507144406 | 57 | 177 | 1.0 | 4.0 | 0.00 | 0.00 | 0.00 | 61 | 1015.0 |
| 20260507144305 | 57 | 167 | 1.0 | 4.0 | 0.00 | 0.00 | 0.00 | 61 | 1015.1 |
| 20260507144205 | 57 | 158 | 1.0 | 4.0 | 0.00 | 0.00 | 0.00 | 61 | 1015.0 |
| 20260507144106 | 57 | 147 | 1.0 | 4.0 | 0.00 | 0.00 | 0.00 | 61 | 1015.2 |
| 20260507144004 | 57 | 152 | 1.0 | 4.0 | 0.00 | 0.00 | 0.00 | 61 | 1015.1 |
| 20260507143906 | 57 | 150 | 1.0 | 4.0 | 0.00 | 0.00 | 0.00 | 60 | 1015.0 |
| 20260507143806 | 57 | 158 | 1.0 | 4.0 | 0.00 | 0.00 | 0.00 | 60 | 1015.2 |
| 20260507143705 | 57 | 163 | 1.0 | 4.0 | 0.00 | 0.00 | 0.00 | 61 | 1015.0 |
| 20260507143619 | 57 | 167 | 1.0 | 4.0 | 0.00 | 0.00 | 0.00 | 61 | 1015.0 |
| 20260507143606 | 57 | 168 | 1.0 | 4.0 | 0.00 | 0.00 | 0.00 | 61 | 1014.7 |
| 20260507143506 | 57 | 178 | 1.0 | 4.0 | 0.00 | 0.00 | 0.00 | 61 | 1015.2 |
| 20260507143305 | 57 | 193 | 1.0 | 4.0 | 0.00 | 0.00 | 0.00 | 61 | 1015.2 |
| 20260507143205 | 58 | 201 | 1.0 | 4.0 | 0.00 | 0.00 | 0.00 | 61 | 1015.1 |
| 20260507143106 | 58 | 209 | 1.0 | 4.0 | 0.00 | 0.00 | 0.00 | 61 | 1015.4 |
| 20260507143005 | 58 | 211 | 1.0 | 4.0 | 0.00 | 0.00 | 0.00 | 61 | 1015.2 |
| 20260507142905 | 58 | 221 | 1.0 | 4.0 | 0.00 | 0.00 | 0.00 | 61 | 1015.3 |
| 20260507142805 | 58 | 226 | 1.0 | 4.0 | 0.00 | 0.00 | 0.00 | 61 | 1015.1 |
| 20260507142705 | 58 | 228 | 1.0 | 4.0 | 0.00 | 0.00 | 0.00 | 61 | 1015.1 |
| 20260507142606 | 58 | 223 | 1.0 | 4.0 | 0.00 | 0.00 | 0.00 | 61 | 1015.2 |
| 20260507142505 | 58 | 221 | 1.0 | 4.0 | 0.00 | 0.00 | 0.00 | 61 | 1015.1 |
| 20260507142406 | 58 | 217 | 1.0 | 4.0 | 0.00 | 0.00 | 0.00 | 61 | 1014.9 |
| 20260507142307 | 58 | 207 | 1.0 | 3.0 | 0.00 | 0.00 | 0.00 | 61 | 1015.0 |
| 20260507142206 | 58 | 200 | 1.0 | 3.0 | 0.00 | 0.00 | 0.00 | 61 | 1015.0 |
| 20260507142106 | 58 | 199 | 1.0 | 3.0 | 0.00 | 0.00 | 0.00 | 61 | 1015.3 |
| 20260507142021 | 58 | 192 | 1.0 | 3.0 | 0.00 | 0.00 | 0.00 | 61 | 1015.3 |
| 20260507142005 | 58 | 188 | 1.0 | 3.0 | 0.00 | 0.00 | 0.00 | 61 | 1015.1 |
| 20260507141919 | 58 | 178 | 1.0 | 3.0 | 0.00 | 0.00 | 0.00 | 61 | 1015.1 |
| 20260507141904 | 58 | 177 | 1.0 | 3.0 | 0.00 | 0.00 | 0.00 | 61 | 1015.1 |
| 20260507141718 | 58 | 164 | 1.0 | 4.0 | 0.00 | 0.00 | 0.00 | 61 | 1015.2 |
| 20260507141606 | 58 | 162 | 1.0 | 4.0 | 0.00 | 0.00 | 0.00 | 61 | 1015.2 |
| 20260507141520 | 58 | 163 | 1.0 | 4.0 | 0.00 | 0.00 | 0.00 | 61 | 1015.2 |
| 20260507141418 | 58 | 165 | 1.0 | 4.0 | 0.00 | 0.00 | 0.00 | 61 | 1015.1 |
| 20260507141406 | 58 | 166 | 1.0 | 4.0 | 0.00 | 0.00 | 0.00 | 61 | 1015.2 |
| 20260507141106 | 58 | 180 | 1.0 | 4.0 | 0.00 | 0.00 | 0.00 | 60 | 1015.0 |
| 20260507141004 | 58 | 181 | 2.0 | 4.0 | 0.00 | 0.00 | 0.00 | 60 | 1015.2 |
| 20260507140906 | 58 | 190 | 2.0 | 6.0 | 0.00 | 0.00 | 0.00 | 60 | 1015.3 |
| 20260507140805 | 58 | 199 | 2.0 | 6.0 | 0.00 | 0.00 | 0.00 | 60 | 1015.4 |
| 20260507140705 | 58 | 202 | 2.0 | 6.0 | 0.00 | 0.00 | 0.00 | 61 | 1015.4 |
| 20260507140605 | 58 | 204 | 2.0 | 6.0 | 0.00 | 0.00 | 0.00 | 60 | 1015.2 |
| 20260507140504 | 58 | 206 | 1.0 | 6.0 | 0.00 | 0.00 | 0.00 | 60 | 1015.2 |
| 20260507140406 | 58 | 207 | 1.0 | 6.0 | 0.00 | 0.00 | 0.00 | 61 | 1015.3 |
| 20260507140304 | 58 | 217 | 1.0 | 9.0 | 0.00 | 0.00 | 0.00 | 61 | 1015.3 |
| 20260507140206 | 58 | 215 | 1.0 | 9.0 | 0.00 | 0.00 | 0.00 | 60 | 1015.0 |
| 20260507140106 | 58 | 217 | 1.0 | 9.0 | 0.00 | 0.00 | 0.00 | 61 | 1015.0 |
| 20260507140006 | 58 | 224 | 1.0 | 9.0 | 0.00 | 0.00 | 0.00 | 61 | 1015.2 |
| 20260507135904 | 58 | 220 | 1.0 | 9.0 | 0.00 | 0.00 | 0.00 | 61 | 1015.0 |
| 20260507135805 | 58 | 214 | 1.0 | 9.0 | 0.00 | 0.00 | 0.00 | 61 | 1015.0 |
| 20260507135705 | 58 | 221 | 1.0 | 9.0 | 0.00 | 0.00 | 0.00 | 61 | 1015.1 |
| 20260507135604 | 58 | 220 | 1.0 | 9.0 | 0.00 | 0.00 | 0.00 | 61 | 1014.9 |
| 20260507135505 | 58 | 218 | 1.0 | 9.0 | 0.00 | 0.00 | 0.00 | 61 | 1015.0 |
| 20260507135404 | 58 | 214 | 1.0 | 9.0 | 0.00 | 0.00 | 0.00 | 61 | 1014.9 |
| 20260507135306 | 58 | 201 | 1.0 | 9.0 | 0.00 | 0.00 | 0.00 | 61 | 1015.1 |
| 20260507135206 | 59 | 205 | 1.0 | 6.0 | 0.00 | 0.00 | 0.00 | 61 | 1014.9 |
| 20260507135106 | 58 | 204 | 1.0 | 6.0 | 0.00 | 0.00 | 0.00 | 61 | 1014.9 |
| 20260507135021 | 59 | 198 | 1.0 | 6.0 | 0.00 | 0.00 | 0.00 | 61 | 1014.9 |
| 20260507135006 | 59 | 199 | 1.0 | 6.0 | 0.00 | 0.00 | 0.00 | 61 | 1015.1 |
| 20260507134904 | 59 | 203 | 1.0 | 6.0 | 0.00 | 0.00 | 0.00 | 61 | 1015.3 |
| 20260507134706 | 59 | 199 | 1.0 | 6.0 | 0.00 | 0.00 | 0.00 | 61 | 1015.0 |
| 20260507134606 | 59 | 202 | 2.0 | 6.0 | 0.00 | 0.00 | 0.00 | 61 | 1015.3 |
| 20260507134506 | 59 | 198 | 2.0 | 6.0 | 0.00 | 0.00 | 0.00 | 61 | 1015.4 |
| 20260507134406 | 59 | 199 | 2.0 | 6.0 | 0.00 | 0.00 | 0.00 | 61 | 1015.2 |
| 20260507134306 | 59 | 205 | 2.0 | 6.0 | 0.00 | 0.00 | 0.00 | 61 | 1015.2 |
| 20260507134206 | 59 | 196 | 1.0 | 4.0 | 0.00 | 0.00 | 0.00 | 61 | 1015.0 |
| 20260507134106 | 59 | 194 | 1.0 | 4.0 | 0.00 | 0.00 | 0.00 | 61 | 1015.2 |
| 20260507134006 | 59 | 193 | 1.0 | 4.0 | 0.00 | 0.00 | 0.00 | 61 | 1015.1 |
| 20260507133904 | 59 | 184 | 1.0 | 4.0 | 0.00 | 0.00 | 0.00 | 61 | 1015.3 |
| 20260507133804 | 59 | 178 | 1.0 | 4.0 | 0.00 | 0.00 | 0.00 | 61 | 1015.1 |
| 20260507133705 | 59 | 183 | 1.0 | 4.0 | 0.00 | 0.00 | 0.00 | 61 | 1015.2 |
| 20260507133604 | 59 | 187 | 1.0 | 6.0 | 0.00 | 0.00 | 0.00 | 61 | 1015.0 |
| 20260507133505 | 59 | 198 | 1.0 | 6.0 | 0.00 | 0.00 | 0.00 | 61 | 1015.3 |
| 20260507133404 | 59 | 204 | 2.0 | 6.0 | 0.00 | 0.00 | 0.00 | 61 | 1015.0 |
| 20260507133305 | 59 | 208 | 2.0 | 6.0 | 0.00 | 0.00 | 0.00 | 61 | 1015.0 |
| 20260507133206 | 59 | 217 | 2.0 | 6.0 | 0.00 | 0.00 | 0.00 | 61 | 1014.9 |
| 20260507133105 | 59 | 217 | 2.0 | 6.0 | 0.00 | 0.00 | 0.00 | 61 | 1014.9 |
| 20260507133005 | 59 | 217 | 2.0 | 6.0 | 0.00 | 0.00 | 0.00 | 61 | 1015.0 |
| 20260507132906 | 59 | 223 | 2.0 | 6.0 | 0.00 | 0.00 | 0.00 | 61 | 1015.0 |
| 20260507132805 | 59 | 235 | 2.0 | 6.0 | 0.00 | 0.00 | 0.00 | 61 | 1014.9 |
| 20260507132720 | 59 | 240 | 2.0 | 6.0 | 0.00 | 0.00 | 0.00 | 61 | 1014.9 |
| 20260507132706 | 59 | 238 | 2.0 | 6.0 | 0.00 | 0.00 | 0.00 | 61 | 1014.8 |
| 20260507132606 | 59 | 242 | 2.0 | 6.0 | 0.00 | 0.00 | 0.00 | 61 | 1014.7 |
| 20260507132406 | 59 | 247 | 1.0 | 6.0 | 0.00 | 0.00 | 0.00 | 61 | 1014.8 |
| 20260507132307 | 59 | 254 | 1.0 | 6.0 | 0.00 | 0.00 | 0.00 | 61 | 1014.9 |
| 20260507132219 | 59 | 246 | 1.0 | 4.0 | 0.00 | 0.00 | 0.00 | 61 | 1014.9 |
| 20260507132206 | 59 | 242 | 1.0 | 4.0 | 0.00 | 0.00 | 0.00 | 61 | 1014.9 |
| 20260507132106 | 59 | 236 | 1.0 | 4.0 | 0.00 | 0.00 | 0.00 | 61 | 1014.8 |
| 20260507131921 | 59 | 222 | 1.0 | 4.0 | 0.00 | 0.00 | 0.00 | 61 | 1015.1 |
| 20260507131906 | 59 | 219 | 1.0 | 4.0 | 0.00 | 0.00 | 0.00 | 61 | 1015.0 |
| 20260507131805 | 59 | 215 | 1.0 | 4.0 | 0.00 | 0.00 | 0.00 | 61 | 1015.0 |
| 20260507131604 | 59 | 211 | 1.0 | 4.0 | 0.00 | 0.00 | 0.00 | 61 | 1014.9 |
| 20260507131506 | 59 | 211 | 1.0 | 4.0 | 0.00 | 0.00 | 0.00 | 61 | 1014.8 |
| 20260507131405 | 59 | 210 | 1.0 | 4.0 | 0.00 | 0.00 | 0.00 | 61 | 1015.0 |
| 20260507131304 | 59 | 204 | 1.0 | 3.0 | 0.00 | 0.00 | 0.00 | 61 | 1015.0 |
| 20260507131204 | 59 | 216 | 1.0 | 3.0 | 0.00 | 0.00 | 0.00 | 61 | 1015.2 |
| 20260507131105 | 59 | 214 | 1.0 | 6.0 | 0.00 | 0.00 | 0.00 | 61 | 1014.9 |
| 20260507131004 | 59 | 215 | 1.0 | 6.0 | 0.00 | 0.00 | 0.00 | 61 | 1014.8 |
| 20260507130906 | 59 | 221 | 1.0 | 6.0 | 0.00 | 0.00 | 0.00 | 61 | 1014.7 |
| 20260507130806 | 59 | 214 | 1.0 | 6.0 | 0.00 | 0.00 | 0.00 | 61 | 1015.0 |
| 20260507130704 | 59 | 209 | 1.0 | 6.0 | 0.00 | 0.00 | 0.00 | 61 | 1014.5 |
| 20260507130606 | 59 | 207 | 1.0 | 6.0 | 0.00 | 0.00 | 0.00 | 61 | 1014.8 |
| 20260507130505 | 59 | 198 | 1.0 | 6.0 | 0.00 | 0.00 | 0.00 | 61 | 1014.7 |
| 20260507130405 | 59 | 191 | 1.0 | 6.0 | 0.00 | 0.00 | 0.00 | 61 | 1014.6 |
| 20260507130305 | 59 | 191 | 2.0 | 6.0 | 0.00 | 0.00 | 0.00 | 60 | 1014.7 |
| 20260507130219 | 59 | 185 | 1.0 | 6.0 | 0.00 | 0.00 | 0.00 | 60 | 1014.7 |
| 20260507130206 | 59 | 184 | 1.0 | 6.0 | 0.00 | 0.00 | 0.00 | 60 | 1014.7 |
| 20260507130120 | 59 | 187 | 1.0 | 6.0 | 0.00 | 0.00 | 0.00 | 60 | 1014.7 |
| 20260507130106 | 59 | 189 | 1.0 | 6.0 | 0.00 | 0.00 | 0.00 | 60 | 1014.8 |
| 20260507130020 | 59 | 190 | 1.0 | 3.0 | 0.00 | 0.00 | 0.00 | 60 | 1014.8 |
| 20260507125705 | 59 | 200 | 1.0 | 3.0 | 0.00 | 0.00 | 0.00 | 60 | 1014.7 |
| 20260507125605 | 59 | 201 | 1.0 | 3.0 | 0.00 | 0.00 | 0.00 | 60 | 1014.9 |
| 20260507125505 | 59 | 207 | 1.0 | 3.0 | 0.00 | 0.00 | 0.00 | 60 | 1014.9 |
| 20260507125406 | 59 | 213 | 1.0 | 3.0 | 0.00 | 0.00 | 0.00 | 60 | 1014.8 |
| 20260507125320 | 59 | 218 | 1.0 | 3.0 | 0.00 | 0.00 | 0.00 | 60 | 1014.8 |
| 20260507125307 | 59 | 218 | 1.0 | 3.0 | 0.00 | 0.00 | 0.00 | 60 | 1014.9 |
| 20260507125221 | 59 | 217 | 1.0 | 3.0 | 0.00 | 0.00 | 0.00 | 60 | 1014.9 |
| 20260507125205 | 59 | 216 | 1.0 | 3.0 | 0.00 | 0.00 | 0.00 | 60 | 1014.8 |
| 20260507124905 | 59 | 201 | 1.0 | 6.0 | 0.00 | 0.00 | 0.00 | 59 | 1014.4 |
| 20260507124805 | 59 | 203 | 1.0 | 6.0 | 0.00 | 0.00 | 0.00 | 59 | 1014.8 |
| 20260507124704 | 59 | 205 | 1.0 | 6.0 | 0.00 | 0.00 | 0.00 | 59 | 1014.7 |
| 20260507124606 | 59 | 207 | 1.0 | 6.0 | 0.00 | 0.00 | 0.00 | 59 | 1014.9 |
| 20260507124505 | 59 | 211 | 1.0 | 6.0 | 0.00 | 0.00 | 0.00 | 59 | 1014.9 |
| 20260507124405 | 59 | 211 | 1.0 | 6.0 | 0.00 | 0.00 | 0.00 | 59 | 1014.7 |
| 20260507124304 | 59 | 206 | 1.0 | 6.0 | 0.00 | 0.00 | 0.00 | 59 | 1014.8 |
| 20260507124206 | 59 | 212 | 1.0 | 6.0 | 0.00 | 0.00 | 0.00 | 59 | 1014.8 |
| 20260507124120 | 59 | 220 | 1.0 | 4.0 | 0.00 | 0.00 | 0.00 | 59 | 1014.8 |
| 20260507124106 | 59 | 226 | 1.0 | 4.0 | 0.00 | 0.00 | 0.00 | 59 | 1014.8 |
| 20260507124006 | 59 | 238 | 1.0 | 4.0 | 0.00 | 0.00 | 0.00 | 59 | 1014.7 |
| 20260507123806 | 60 | 245 | 1.0 | 2.0 | 0.00 | 0.00 | 0.00 | 59 | 1014.6 |
| 20260507123705 | 60 | 252 | 1.0 | 2.0 | 0.00 | 0.00 | 0.00 | 59 | 1014.5 |
| 20260507123606 | 60 | 262 | 1.0 | 2.0 | 0.00 | 0.00 | 0.00 | 59 | 1014.3 |
| 20260507123508 | 60 | 269 | 1.0 | 2.0 | 0.00 | 0.00 | 0.00 | 58 | 1014.5 |
| 20260507123405 | 60 | 278 | 1.0 | 2.0 | 0.00 | 0.00 | 0.00 | 58 | 1014.5 |
| 20260507123320 | 60 | 283 | 1.0 | 2.0 | 0.00 | 0.00 | 0.00 | 58 | 1014.5 |
| 20260507123305 | 60 | 285 | 1.0 | 2.0 | 0.00 | 0.00 | 0.00 | 58 | 1014.8 |
| 20260507123219 | 60 | 289 | 1.0 | 2.0 | 0.00 | 0.00 | 0.00 | 58 | 1014.8 |
| 20260507123205 | 60 | 290 | 1.0 | 2.0 | 0.00 | 0.00 | 0.00 | 58 | 1014.7 |
| 20260507123119 | 60 | 293 | 1.0 | 2.0 | 0.00 | 0.00 | 0.00 | 58 | 1014.7 |
| 20260507122805 | 60 | 313 | 1.0 | 2.0 | 0.00 | 0.00 | 0.00 | 58 | 1014.6 |
| 20260507122705 | 60 | 316 | 1.0 | 2.0 | 0.00 | 0.00 | 0.00 | 58 | 1014.5 |
| 20260507122604 | 60 | 312 | 1.0 | 2.0 | 0.00 | 0.00 | 0.00 | 58 | 1014.4 |
| 20260507122505 | 60 | 305 | 1.0 | 2.0 | 0.00 | 0.00 | 0.00 | 57 | 1014.3 |
| 20260507122404 | 60 | 302 | 1.0 | 2.0 | 0.00 | 0.00 | 0.00 | 57 | 1014.4 |
| 20260507122307 | 60 | 293 | 1.0 | 3.0 | 0.00 | 0.00 | 0.00 | 57 | 1014.3 |
| 20260507122206 | 60 | 300 | 1.0 | 3.0 | 0.00 | 0.00 | 0.00 | 57 | 1014.5 |
| 20260507122122 | 60 | 306 | 1.0 | 3.0 | 0.00 | 0.00 | 0.00 | 57 | 1014.5 |
| 20260507122104 | 60 | 308 | 1.0 | 3.0 | 0.00 | 0.00 | 0.00 | 57 | 1014.4 |
| 20260507122006 | 60 | 315 | 1.0 | 3.0 | 0.00 | 0.00 | 0.00 | 57 | 1014.2 |
| 20260507121804 | 60 | 332 | 1.0 | 3.0 | 0.00 | 0.00 | 0.00 | 57 | 1014.3 |
| 20260507121720 | 61 | 335 | 1.0 | 3.0 | 0.00 | 0.00 | 0.00 | 57 | 1014.3 |
| 20260507121704 | 61 | 337 | 1.0 | 3.0 | 0.00 | 0.00 | 0.00 | 57 | 1014.4 |
| 20260507121605 | 61 | 360 | 1.0 | 3.0 | 0.00 | 0.00 | 0.00 | 57 | 1014.2 |
| 20260507121406 | 61 | 22 | 1.0 | 3.0 | 0.00 | 0.00 | 0.00 | 57 | 1014.5 |
| 20260507121306 | 61 | 29 | 1.0 | 2.0 | 0.00 | 0.00 | 0.00 | 56 | 1014.2 |
| 20260507121221 | 61 | 30 | 1.0 | 2.0 | 0.00 | 0.00 | 0.00 | 56 | 1014.2 |
| 20260507121206 | 61 | 30 | 1.0 | 2.0 | 0.00 | 0.00 | 0.00 | 56 | 1014.4 |
| 20260507121106 | 61 | 30 | 1.0 | 2.0 | 0.00 | 0.00 | 0.00 | 56 | 1014.3 |
| 20260507121020 | 61 | 30 | 1.0 | 2.0 | 0.00 | 0.00 | 0.00 | 56 | 1014.3 |
| 20260507120906 | 61 | 30 | 1.0 | 2.0 | 0.00 | 0.00 | 0.00 | 56 | 1014.5 |
| 20260507120720 | 61 | 30 | 1.0 | 2.0 | 0.00 | 0.00 | 0.00 | 56 | 1014.5 |
| 20260507120706 | 61 | 30 | 1.0 | 2.0 | 0.00 | 0.00 | 0.00 | 56 | 1014.3 |
| 20260507120620 | 61 | 30 | 1.0 | 2.0 | 0.00 | 0.00 | 0.00 | 56 | 1014.3 |
| 20260507120605 | 61 | 30 | 1.0 | 2.0 | 0.00 | 0.00 | 0.00 | 56 | 1014.2 |
| 20260507120305 | 62 | 30 | 1.0 | 2.0 | 0.00 | 0.00 | 0.00 | 56 | 1014.2 |
| 20260507120205 | 62 | 30 | 1.0 | 2.0 | 0.00 | 0.00 | 0.00 | 56 | 1014.1 |
| 20260507120119 | 62 | 30 | 0.0 | 2.0 | 0.00 | 0.00 | 0.00 | 56 | 1014.1 |
| 20260507120106 | 62 | 30 | 0.0 | 1.0 | 0.00 | 0.00 | 0.00 | 56 | 1014.2 |
| 20260507120006 | 62 | 30 | 0.0 | 1.0 | 0.00 | 0.00 | 0.00 | 56 | 1014.2 |
| 20260507115805 | 62 | 30 | 0.0 | 2.0 | 0.00 | 0.00 | 0.00 | 56 | 1014.2 |
| 20260507115720 | 62 | 30 | 0.0 | 2.0 | 0.00 | 0.00 | 0.00 | 55 | 1014.2 |
| 20260507115705 | 62 | 30 | 0.0 | 2.0 | 0.00 | 0.00 | 0.00 | 55 | 1014.1 |
| 20260507115618 | 62 | 30 | 0.0 | 2.0 | 0.00 | 0.00 | 0.00 | 55 | 1014.1 |
| 20260507115605 | 62 | 30 | 0.0 | 2.0 | 0.00 | 0.00 | 0.00 | 55 | 1014.3 |
| 20260507115307 | 62 | 23 | 1.0 | 3.0 | 0.00 | 0.00 | 0.00 | 55 | 1014.1 |
| 20260507115221 | 62 | 22 | 1.0 | 3.0 | 0.00 | 0.00 | 0.00 | 55 | 1014.1 |
| 20260507115204 | 62 | 21 | 1.0 | 3.0 | 0.00 | 0.00 | 0.00 | 55 | 1014.2 |
| 20260507115104 | 62 | 14 | 1.0 | 4.0 | 0.00 | 0.00 | 0.00 | 55 | 1014.2 |
| 20260507115018 | 62 | 12 | 1.0 | 4.0 | 0.00 | 0.00 | 0.00 | 55 | 1014.2 |
| 20260507114904 | 62 | 360 | 1.0 | 4.0 | 0.00 | 0.00 | 0.00 | 55 | 1014.1 |
| 20260507114720 | 62 | 346 | 2.0 | 4.0 | 0.00 | 0.00 | 0.00 | 55 | 1014.4 |
| 20260507114704 | 62 | 343 | 2.0 | 4.0 | 0.00 | 0.00 | 0.00 | 55 | 1014.2 |
| 20260507114604 | 62 | 329 | 2.0 | 4.0 | 0.00 | 0.00 | 0.00 | 55 | 1014.2 |
| 20260507114404 | 62 | 316 | 2.0 | 4.0 | 0.00 | 0.00 | 0.00 | 55 | 1014.1 |
| 20260507114304 | 62 | 317 | 2.0 | 7.0 | 0.00 | 0.00 | 0.00 | 55 | 1014.3 |
| 20260507114205 | 62 | 315 | 3.0 | 7.0 | 0.00 | 0.00 | 0.00 | 55 | 1014.2 |
| 20260507114104 | 62 | 309 | 2.0 | 7.0 | 0.00 | 0.00 | 0.00 | 55 | 1014.5 |
| 20260507114004 | 62 | 306 | 2.0 | 7.0 | 0.00 | 0.00 | 0.00 | 55 | 1014.1 |
| 20260507113920 | 62 | 306 | 2.0 | 7.0 | 0.00 | 0.00 | 0.00 | 54 | 1014.1 |
| 20260507113905 | 62 | 305 | 2.0 | 7.0 | 0.00 | 0.00 | 0.00 | 54 | 1014.1 |
| 20260507113804 | 62 | 302 | 2.0 | 7.0 | 0.00 | 0.00 | 0.00 | 54 | 1014.1 |
| 20260507113605 | 62 | 308 | 2.0 | 7.0 | 0.00 | 0.00 | 0.00 | 54 | 1014.1 |
| 20260507113505 | 62 | 309 | 2.0 | 7.0 | 0.00 | 0.00 | 0.00 | 54 | 1014.5 |
| 20260507113406 | 62 | 312 | 2.0 | 7.0 | 0.00 | 0.00 | 0.00 | 54 | 1014.3 |
| 20260507113306 | 63 | 311 | 2.0 | 6.0 | 0.00 | 0.00 | 0.00 | 54 | 1014.2 |
| 20260507113220 | 63 | 308 | 1.0 | 6.0 | 0.00 | 0.00 | 0.00 | 54 | 1014.2 |
| 20260507113205 | 63 | 309 | 1.0 | 6.0 | 0.00 | 0.00 | 0.00 | 54 | 1014.3 |
| 20260507113105 | 63 | 313 | 1.0 | 6.0 | 0.00 | 0.00 | 0.00 | 54 | 1014.0 |
| 20260507112906 | 63 | 309 | 2.0 | 7.0 | 0.00 | 0.00 | 0.00 | 54 | 1014.1 |
| 20260507112806 | 63 | 309 | 2.0 | 7.0 | 0.00 | 0.00 | 0.00 | 54 | 1014.3 |
| 20260507112706 | 63 | 309 | 2.0 | 7.0 | 0.00 | 0.00 | 0.00 | 54 | 1014.3 |
| 20260507112605 | 63 | 305 | 2.0 | 7.0 | 0.00 | 0.00 | 0.00 | 54 | 1014.2 |
| 20260507112506 | 63 | 304 | 2.0 | 7.0 | 0.00 | 0.00 | 0.00 | 54 | 1014.1 |
| 20260507112404 | 63 | 296 | 2.0 | 7.0 | 0.00 | 0.00 | 0.00 | 54 | 1014.1 |
| 20260507112307 | 63 | 286 | 2.0 | 7.0 | 0.00 | 0.00 | 0.00 | 54 | 1014.2 |
| 20260507112205 | 63 | 280 | 2.0 | 7.0 | 0.00 | 0.00 | 0.00 | 54 | 1014.0 |
| 20260507112121 | 63 | 282 | 2.0 | 7.0 | 0.00 | 0.00 | 0.00 | 54 | 1014.0 |
| 20260507112105 | 63 | 283 | 2.0 | 7.0 | 0.00 | 0.00 | 0.00 | 54 | 1013.7 |
| 20260507112005 | 63 | 280 | 2.0 | 7.0 | 0.00 | 0.00 | 0.00 | 54 | 1013.8 |
| 20260507111805 | 63 | 283 | 2.0 | 6.0 | 0.00 | 0.00 | 0.00 | 53 | 1014.0 |
| 20260507111706 | 63 | 286 | 2.0 | 6.0 | 0.00 | 0.00 | 0.00 | 53 | 1013.9 |
| 20260507111606 | 63 | 289 | 2.0 | 6.0 | 0.00 | 0.00 | 0.00 | 53 | 1013.8 |
| 20260507111506 | 63 | 284 | 2.0 | 6.0 | 0.00 | 0.00 | 0.00 | 53 | 1013.9 |
| 20260507111407 | 63 | 285 | 2.0 | 6.0 | 0.00 | 0.00 | 0.00 | 53 | 1013.9 |
| 20260507111306 | 63 | 284 | 2.0 | 6.0 | 0.00 | 0.00 | 0.00 | 53 | 1014.0 |
| 20260507111221 | 63 | 283 | 2.0 | 4.0 | 0.00 | 0.00 | 0.00 | 54 | 1014.0 |
| 20260507111206 | 63 | 283 | 2.0 | 4.0 | 0.00 | 0.00 | 0.00 | 54 | 1013.7 |
| 20260507111106 | 63 | 272 | 2.0 | 4.0 | 0.00 | 0.00 | 0.00 | 53 | 1013.8 |
| 20260507110906 | 63 | 269 | 2.0 | 4.0 | 0.00 | 0.00 | 0.00 | 53 | 1013.8 |
| 20260507110806 | 63 | 271 | 2.0 | 4.0 | 0.00 | 0.00 | 0.00 | 53 | 1014.2 |
| 20260507110719 | 63 | 265 | 2.0 | 4.0 | 0.00 | 0.00 | 0.00 | 53 | 1014.2 |
| 20260507110706 | 63 | 266 | 2.0 | 4.0 | 0.00 | 0.00 | 0.00 | 53 | 1013.9 |
| 20260507110606 | 63 | 265 | 2.0 | 4.0 | 0.00 | 0.00 | 0.00 | 53 | 1013.9 |
| 20260507110520 | 63 | 268 | 2.0 | 4.0 | 0.00 | 0.00 | 0.00 | 53 | 1013.9 |
| 20260507110419 | 63 | 266 | 2.0 | 4.0 | 0.00 | 0.00 | 0.00 | 53 | 1013.8 |
| 20260507110405 | 63 | 265 | 2.0 | 4.0 | 0.00 | 0.00 | 0.00 | 53 | 1013.9 |
| 20260507110121 | 63 | 264 | 1.0 | 3.0 | 0.00 | 0.00 | 0.00 | 53 | 1013.9 |
| 20260507110106 | 63 | 265 | 1.0 | 3.0 | 0.00 | 0.00 | 0.00 | 53 | 1013.8 |
| 20260507110005 | 63 | 268 | 1.0 | 3.0 | 0.00 | 0.00 | 0.00 | 53 | 1013.8 |
| 20260507105806 | 64 | 259 | 1.0 | 3.0 | 0.00 | 0.00 | 0.00 | 53 | 1013.9 |
| 20260507105706 | 64 | 259 | 1.0 | 3.0 | 0.00 | 0.00 | 0.00 | 53 | 1013.8 |
| 20260507105605 | 64 | 267 | 1.0 | 7.0 | 0.00 | 0.00 | 0.00 | 53 | 1013.8 |
| 20260507105506 | 64 | 276 | 1.0 | 7.0 | 0.00 | 0.00 | 0.00 | 53 | 1013.7 |
| 20260507105406 | 64 | 285 | 1.0 | 7.0 | 0.00 | 0.00 | 0.00 | 53 | 1013.7 |
| 20260507105320 | 64 | 284 | 2.0 | 7.0 | 0.00 | 0.00 | 0.00 | 53 | 1013.7 |
| 20260507105307 | 64 | 284 | 2.0 | 7.0 | 0.00 | 0.00 | 0.00 | 53 | 1013.4 |
| 20260507105205 | 64 | 279 | 2.0 | 7.0 | 0.00 | 0.00 | 0.00 | 53 | 1013.4 |
| 20260507105005 | 64 | 279 | 2.0 | 7.0 | 0.00 | 0.00 | 0.00 | 53 | 1013.3 |
| 20260507104905 | 64 | 282 | 2.0 | 7.0 | 0.00 | 0.00 | 0.00 | 53 | 1013.4 |
| 20260507104806 | 64 | 280 | 3.0 | 8.0 | 0.00 | 0.00 | 0.00 | 53 | 1013.3 |
| 20260507104721 | 64 | 279 | 2.0 | 8.0 | 0.00 | 0.00 | 0.00 | 53 | 1013.3 |
| 20260507104704 | 64 | 278 | 3.0 | 8.0 | 0.00 | 0.00 | 0.00 | 53 | 1013.2 |
| 20260507104606 | 64 | 272 | 2.0 | 8.0 | 0.00 | 0.00 | 0.00 | 53 | 1013.4 |
| 20260507104406 | 64 | 253 | 2.0 | 8.0 | 0.00 | 0.00 | 0.00 | 52 | 1013.2 |
| 20260507104306 | 64 | 251 | 2.0 | 8.0 | 0.00 | 0.00 | 0.00 | 52 | 1013.1 |
| 20260507104205 | 64 | 254 | 2.0 | 8.0 | 0.00 | 0.00 | 0.00 | 52 | 1013.5 |
| 20260507104121 | 64 | 253 | 2.0 | 8.0 | 0.00 | 0.00 | 0.00 | 52 | 1013.5 |
| 20260507104106 | 64 | 251 | 2.0 | 8.0 | 0.00 | 0.00 | 0.00 | 52 | 1013.3 |
| 20260507104006 | 64 | 249 | 2.0 | 8.0 | 0.00 | 0.00 | 0.00 | 52 | 1013.0 |
| 20260507103805 | 64 | 235 | 2.0 | 7.0 | 0.00 | 0.00 | 0.00 | 52 | 1013.2 |
| 20260507103706 | 64 | 237 | 2.0 | 7.0 | 0.00 | 0.00 | 0.00 | 52 | 1013.3 |
| 20260507103606 | 64 | 242 | 2.0 | 7.0 | 0.00 | 0.00 | 0.00 | 52 | 1013.0 |
| 20260507103520 | 64 | 245 | 2.0 | 7.0 | 0.00 | 0.00 | 0.00 | 52 | 1013.0 |
| 20260507103506 | 64 | 246 | 2.0 | 7.0 | 0.00 | 0.00 | 0.00 | 52 | 1012.9 |
| 20260507103406 | 64 | 246 | 2.0 | 7.0 | 0.00 | 0.00 | 0.00 | 52 | 1013.0 |
| 20260507103206 | 64 | 259 | 2.0 | 7.0 | 0.00 | 0.00 | 0.00 | 52 | 1013.1 |
| 20260507103106 | 64 | 260 | 2.0 | 7.0 | 0.00 | 0.00 | 0.00 | 52 | 1013.1 |
| 20260507103007 | 65 | 263 | 2.0 | 7.0 | 0.00 | 0.00 | 0.00 | 52 | 1012.9 |
| 20260507102906 | 65 | 265 | 2.0 | 7.0 | 0.00 | 0.00 | 0.00 | 52 | 1012.8 |
| 20260507102807 | 65 | 266 | 3.0 | 8.0 | 0.00 | 0.00 | 0.00 | 52 | 1013.1 |
| 20260507102706 | 65 | 269 | 3.0 | 8.0 | 0.00 | 0.00 | 0.00 | 52 | 1013.1 |
| 20260507102606 | 65 | 274 | 3.0 | 8.0 | 0.00 | 0.00 | 0.00 | 52 | 1013.1 |
| 20260507102520 | 65 | 281 | 3.0 | 8.0 | 0.00 | 0.00 | 0.00 | 52 | 1013.1 |
| 20260507102504 | 65 | 283 | 3.0 | 8.0 | 0.00 | 0.00 | 0.00 | 52 | 1013.2 |
| 20260507102206 | 65 | 285 | 4.0 | 11.0 | 0.00 | 0.00 | 0.00 | 52 | 1013.1 |
| 20260507102106 | 65 | 292 | 4.0 | 11.0 | 0.00 | 0.00 | 0.00 | 52 | 1012.8 |
| 20260507102006 | 65 | 295 | 4.0 | 11.0 | 0.00 | 0.00 | 0.00 | 52 | 1012.8 |
| 20260507101906 | 65 | 297 | 4.0 | 11.0 | 0.00 | 0.00 | 0.00 | 52 | 1012.8 |
| 20260507101806 | 65 | 304 | 4.0 | 11.0 | 0.00 | 0.00 | 0.00 | 52 | 1012.8 |
| 20260507101605 | 65 | 302 | 4.0 | 11.0 | 0.00 | 0.00 | 0.00 | 52 | 1012.7 |
| 20260507101507 | 65 | 302 | 4.0 | 11.0 | 0.00 | 0.00 | 0.00 | 52 | 1012.7 |
| 20260507101405 | 65 | 301 | 3.0 | 10.0 | 0.00 | 0.00 | 0.00 | 52 | 1012.8 |
| 20260507101321 | 65 | 300 | 3.0 | 10.0 | 0.00 | 0.00 | 0.00 | 52 | 1012.8 |
| 20260507101305 | 65 | 299 | 3.0 | 10.0 | 0.00 | 0.00 | 0.00 | 52 | 1012.9 |
| 20260507101205 | 65 | 307 | 3.0 | 9.0 | 0.00 | 0.00 | 0.00 | 52 | 1012.5 |
| 20260507101005 | 65 | 304 | 3.0 | 7.0 | 0.00 | 0.00 | 0.00 | 52 | 1012.6 |
| 20260507100905 | 65 | 300 | 3.0 | 7.0 | 0.00 | 0.00 | 0.00 | 52 | 1012.6 |
| 20260507100818 | 65 | 299 | 3.0 | 7.0 | 0.00 | 0.00 | 0.00 | 52 | 1012.6 |
| 20260507100806 | 65 | 300 | 3.0 | 7.0 | 0.00 | 0.00 | 0.00 | 52 | 1012.6 |
| 20260507100721 | 65 | 296 | 3.0 | 7.0 | 0.00 | 0.00 | 0.00 | 52 | 1012.6 |
| 20260507100705 | 65 | 297 | 3.0 | 7.0 | 0.00 | 0.00 | 0.00 | 52 | 1012.9 |
| 20260507100619 | 65 | 303 | 3.0 | 7.0 | 0.00 | 0.00 | 0.00 | 52 | 1012.9 |
| 20260507100306 | 65 | 304 | 3.0 | 7.0 | 0.00 | 0.00 | 0.00 | 52 | 1012.6 |
| 20260507100205 | 65 | 306 | 3.0 | 7.0 | 0.00 | 0.00 | 0.00 | 52 | 1012.7 |
| 20260507100106 | 65 | 306 | 3.0 | 7.0 | 0.00 | 0.00 | 0.00 | 52 | 1012.8 |
| 20260507100006 | 65 | 304 | 2.0 | 7.0 | 0.00 | 0.00 | 0.00 | 52 | 1012.5 |
| 20260507095906 | 65 | 306 | 2.0 | 7.0 | 0.00 | 0.00 | 0.00 | 52 | 1012.6 |
| 20260507095805 | 65 | 297 | 2.0 | 7.0 | 0.00 | 0.00 | 0.00 | 52 | 1012.4 |
| 20260507095706 | 66 | 299 | 2.0 | 7.0 | 0.00 | 0.00 | 0.00 | 52 | 1012.5 |
| 20260507095605 | 66 | 287 | 2.0 | 7.0 | 0.00 | 0.00 | 0.00 | 52 | 1012.7 |
| 20260507095505 | 66 | 282 | 2.0 | 7.0 | 0.00 | 0.00 | 0.00 | 52 | 1012.4 |
| 20260507095406 | 66 | 286 | 2.0 | 7.0 | 0.00 | 0.00 | 0.00 | 52 | 1012.4 |
| 20260507095306 | 66 | 286 | 2.0 | 7.0 | 0.00 | 0.00 | 0.00 | 52 | 1012.6 |
| 20260507095205 | 66 | 284 | 2.0 | 8.0 | 0.00 | 0.00 | 0.00 | 52 | 1012.4 |
| 20260507095106 | 66 | 282 | 2.0 | 8.0 | 0.00 | 0.00 | 0.00 | 52 | 1012.3 |
| 20260507095005 | 66 | 282 | 2.0 | 8.0 | 0.00 | 0.00 | 0.00 | 52 | 1012.4 |
| 20260507094905 | 66 | 280 | 2.0 | 9.0 | 0.00 | 0.00 | 0.00 | 51 | 1012.3 |
| 20260507094805 | 66 | 283 | 2.0 | 9.0 | 0.00 | 0.00 | 0.00 | 51 | 1012.2 |
| 20260507094704 | 66 | 285 | 2.0 | 9.0 | 0.00 | 0.00 | 0.00 | 52 | 1012.2 |
| 20260507094605 | 66 | 292 | 2.0 | 9.0 | 0.00 | 0.00 | 0.00 | 52 | 1012.3 |
| 20260507094520 | 66 | 294 | 2.0 | 9.0 | 0.00 | 0.00 | 0.00 | 52 | 1012.3 |
| 20260507094505 | 66 | 293 | 2.0 | 9.0 | 0.00 | 0.00 | 0.00 | 52 | 1012.1 |
| 20260507094406 | 66 | 291 | 2.0 | 9.0 | 0.00 | 0.00 | 0.00 | 52 | 1012.0 |
| 20260507094205 | 66 | 287 | 2.0 | 9.0 | 0.00 | 0.00 | 0.00 | 52 | 1012.2 |
| 20260507094104 | 66 | 284 | 2.0 | 9.0 | 0.00 | 0.00 | 0.00 | 52 | 1012.1 |
| 20260507094005 | 66 | 287 | 2.0 | 9.0 | 0.00 | 0.00 | 0.00 | 52 | 1012.1 |
| 20260507093905 | 66 | 292 | 2.0 | 9.0 | 0.00 | 0.00 | 0.00 | 52 | 1012.1 |
| 20260507093805 | 66 | 303 | 2.0 | 8.0 | 0.00 | 0.00 | 0.00 | 52 | 1012.0 |
| 20260507093705 | 66 | 312 | 2.0 | 8.0 | 0.00 | 0.00 | 0.00 | 52 | 1012.1 |
| 20260507093605 | 66 | 312 | 2.0 | 8.0 | 0.00 | 0.00 | 0.00 | 52 | 1012.0 |
| 20260507093506 | 66 | 312 | 2.0 | 8.0 | 0.00 | 0.00 | 0.00 | 52 | 1011.9 |
| 20260507093406 | 66 | 321 | 2.0 | 8.0 | 0.00 | 0.00 | 0.00 | 52 | 1012.0 |
| 20260507093306 | 66 | 326 | 2.0 | 8.0 | 0.00 | 0.00 | 0.00 | 52 | 1011.9 |
| 20260507093206 | 66 | 335 | 2.0 | 8.0 | 0.00 | 0.00 | 0.00 | 52 | 1011.9 |
| 20260507093120 | 67 | 324 | 2.0 | 9.0 | 0.00 | 0.00 | 0.00 | 52 | 1011.9 |
| 20260507093106 | 67 | 323 | 2.0 | 9.0 | 0.00 | 0.00 | 0.00 | 52 | 1012.0 |
| 20260507093005 | 67 | 323 | 2.0 | 9.0 | 0.00 | 0.00 | 0.00 | 52 | 1012.1 |
| 20260507092805 | 67 | 318 | 2.0 | 9.0 | 0.00 | 0.00 | 0.00 | 52 | 1012.1 |
| 20260507092705 | 67 | 312 | 2.0 | 9.0 | 0.00 | 0.00 | 0.00 | 52 | 1011.9 |
| 20260507092605 | 67 | 315 | 2.0 | 9.0 | 0.00 | 0.00 | 0.00 | 52 | 1011.6 |
| 20260507092506 | 67 | 315 | 2.0 | 9.0 | 0.00 | 0.00 | 0.00 | 52 | 1011.9 |
| 20260507092406 | 67 | 311 | 2.0 | 9.0 | 0.00 | 0.00 | 0.00 | 52 | 1011.8 |
| 20260507092319 | 67 | 301 | 2.0 | 9.0 | 0.00 | 0.00 | 0.00 | 52 | 1011.8 |
| 20260507092307 | 67 | 299 | 2.0 | 9.0 | 0.00 | 0.00 | 0.00 | 52 | 1011.5 |
| 20260507092204 | 67 | 294 | 2.0 | 9.0 | 0.00 | 0.00 | 0.00 | 52 | 1011.6 |
| 20260507092006 | 67 | 300 | 2.0 | 6.0 | 0.00 | 0.00 | 0.00 | 52 | 1011.6 |
| 20260507091906 | 67 | 299 | 2.0 | 7.0 | 0.00 | 0.00 | 0.00 | 52 | 1011.6 |
| 20260507091805 | 67 | 300 | 2.0 | 7.0 | 0.00 | 0.00 | 0.00 | 52 | 1011.5 |
| 20260507091704 | 67 | 293 | 2.0 | 7.0 | 0.00 | 0.00 | 0.00 | 52 | 1011.6 |
| 20260507091604 | 67 | 287 | 3.0 | 8.0 | 0.00 | 0.00 | 0.00 | 52 | 1011.6 |
| 20260507091505 | 67 | 286 | 3.0 | 11.0 | 0.00 | 0.00 | 0.00 | 52 | 1011.9 |
| 20260507091405 | 67 | 288 | 3.0 | 11.0 | 0.00 | 0.00 | 0.00 | 52 | 1011.6 |
| 20260507091321 | 67 | 286 | 3.0 | 11.0 | 0.00 | 0.00 | 0.00 | 52 | 1011.6 |
| 20260507091305 | 67 | 287 | 3.0 | 11.0 | 0.00 | 0.00 | 0.00 | 52 | 1011.4 |
| 20260507091205 | 67 | 285 | 3.0 | 11.0 | 0.00 | 0.00 | 0.00 | 52 | 1011.6 |
| 20260507091006 | 67 | 294 | 3.0 | 11.0 | 0.00 | 0.00 | 0.00 | 53 | 1011.6 |
| 20260507090905 | 67 | 295 | 3.0 | 11.0 | 0.00 | 0.00 | 0.00 | 52 | 1011.5 |
| 20260507090805 | 67 | 295 | 3.0 | 11.0 | 0.00 | 0.00 | 0.00 | 52 | 1011.4 |
| 20260507090705 | 67 | 299 | 3.0 | 11.0 | 0.00 | 0.00 | 0.00 | 52 | 1011.4 |
| 20260507090619 | 67 | 302 | 3.0 | 11.0 | 0.00 | 0.00 | 0.00 | 52 | 1011.4 |
| 20260507090605 | 67 | 301 | 3.0 | 11.0 | 0.00 | 0.00 | 0.00 | 52 | 1011.4 |
| 20260507090505 | 68 | 301 | 3.0 | 11.0 | 0.00 | 0.00 | 0.00 | 52 | 1011.6 |
| 20260507090305 | 68 | 301 | 2.0 | 11.0 | 0.00 | 0.00 | 0.00 | 52 | 1011.4 |
| 20260507090205 | 68 | 305 | 2.0 | 11.0 | 0.00 | 0.00 | 0.00 | 52 | 1011.6 |
| 20260507090106 | 68 | 299 | 3.0 | 11.0 | 0.00 | 0.00 | 0.00 | 52 | 1011.4 |
| 20260507090021 | 68 | 297 | 3.0 | 11.0 | 0.00 | 0.00 | 0.00 | 52 | 1011.4 |
| 20260507090005 | 68 | 296 | 3.0 | 11.0 | 0.00 | 0.00 | 0.00 | 52 | 1011.3 |
| 20260507085904 | 68 | 297 | 3.0 | 11.0 | 0.00 | 0.00 | 0.00 | 52 | 1011.8 |
| 20260507085706 | 68 | 294 | 3.0 | 11.0 | 0.00 | 0.00 | 0.00 | 53 | 1011.3 |
| 20260507085605 | 68 | 296 | 3.0 | 11.0 | 0.00 | 0.00 | 0.00 | 53 | 1011.3 |
| 20260507085520 | 68 | 298 | 3.0 | 11.0 | 0.00 | 0.00 | 0.00 | 53 | 1011.3 |
| 20260507085505 | 68 | 299 | 3.0 | 11.0 | 0.00 | 0.00 | 0.00 | 52 | 1011.3 |
| 20260507085406 | 68 | 305 | 3.0 | 11.0 | 0.00 | 0.00 | 0.00 | 52 | 1011.3 |
| 20260507085205 | 68 | 305 | 4.0 | 11.0 | 0.00 | 0.00 | 0.00 | 52 | 1011.4 |
| 20260507085106 | 68 | 308 | 3.0 | 11.0 | 0.00 | 0.00 | 0.00 | 52 | 1011.3 |
| 20260507085019 | 68 | 304 | 3.0 | 11.0 | 0.00 | 0.00 | 0.00 | 52 | 1011.3 |
| 20260507085005 | 68 | 301 | 3.0 | 11.0 | 0.00 | 0.00 | 0.00 | 52 | 1011.5 |
| 20260507084905 | 68 | 294 | 3.0 | 11.0 | 0.00 | 0.00 | 0.00 | 53 | 1011.5 |
| 20260507084706 | 68 | 301 | 3.0 | 9.0 | 0.00 | 0.00 | 0.00 | 53 | 1011.5 |
| 20260507084606 | 68 | 293 | 3.0 | 9.0 | 0.00 | 0.00 | 0.00 | 53 | 1011.3 |
| 20260507084505 | 68 | 291 | 3.0 | 8.0 | 0.00 | 0.00 | 0.00 | 53 | 1011.4 |
| 20260507084405 | 68 | 284 | 4.0 | 8.0 | 0.00 | 0.00 | 0.00 | 53 | 1011.4 |
| 20260507084321 | 68 | 285 | 4.0 | 8.0 | 0.00 | 0.00 | 0.00 | 53 | 1011.4 |
| 20260507084304 | 68 | 283 | 4.0 | 8.0 | 0.00 | 0.00 | 0.00 | 53 | 1011.2 |
| 20260507084206 | 68 | 281 | 3.0 | 8.0 | 0.00 | 0.00 | 0.00 | 53 | 1011.2 |
| 20260507084006 | 68 | 284 | 4.0 | 11.0 | 0.00 | 0.00 | 0.00 | 53 | 1011.2 |
| 20260507083906 | 68 | 293 | 4.0 | 11.0 | 0.00 | 0.00 | 0.00 | 53 | 1011.3 |
| 20260507083806 | 68 | 288 | 4.0 | 11.0 | 0.00 | 0.00 | 0.00 | 53 | 1011.3 |
| 20260507083705 | 68 | 286 | 4.0 | 11.0 | 0.00 | 0.00 | 0.00 | 53 | 1011.2 |
| 20260507083606 | 68 | 290 | 4.0 | 11.0 | 0.00 | 0.00 | 0.00 | 53 | 1011.2 |
| 20260507083505 | 68 | 293 | 4.0 | 11.0 | 0.00 | 0.00 | 0.00 | 53 | 1011.1 |
| 20260507083406 | 68 | 296 | 4.0 | 11.0 | 0.00 | 0.00 | 0.00 | 54 | 1011.1 |
| 20260507083319 | 68 | 296 | 4.0 | 11.0 | 0.00 | 0.00 | 0.00 | 53 | 1011.1 |
| 20260507083306 | 68 | 297 | 4.0 | 11.0 | 0.00 | 0.00 | 0.00 | 53 | 1011.0 |
| 20260507083206 | 68 | 301 | 4.0 | 11.0 | 0.00 | 0.00 | 0.00 | 53 | 1011.3 |
| 20260507083019 | 68 | 305 | 4.0 | 10.0 | 0.00 | 0.00 | 0.00 | 54 | 1011.2 |
| 20260507083005 | 68 | 307 | 4.0 | 10.0 | 0.00 | 0.00 | 0.00 | 54 | 1011.1 |
| 20260507082919 | 68 | 308 | 4.0 | 10.0 | 0.00 | 0.00 | 0.00 | 54 | 1011.1 |
| 20260507082905 | 68 | 307 | 4.0 | 10.0 | 0.00 | 0.00 | 0.00 | 54 | 1011.2 |
| 20260507082604 | 68 | 313 | 4.0 | 11.0 | 0.00 | 0.00 | 0.00 | 54 | 1010.9 |
| 20260507082522 | 68 | 314 | 4.0 | 11.0 | 0.00 | 0.00 | 0.00 | 54 | 1010.9 |
| 20260507082505 | 68 | 312 | 4.0 | 11.0 | 0.00 | 0.00 | 0.00 | 54 | 1011.2 |
| 20260507082405 | 68 | 311 | 4.0 | 11.0 | 0.00 | 0.00 | 0.00 | 54 | 1011.1 |
| 20260507082204 | 68 | 311 | 4.0 | 11.0 | 0.00 | 0.00 | 0.00 | 54 | 1010.8 |
| 20260507082105 | 68 | 308 | 4.0 | 11.0 | 0.00 | 0.00 | 0.00 | 54 | 1011.0 |
| 20260507082005 | 68 | 306 | 4.0 | 11.0 | 0.00 | 0.00 | 0.00 | 54 | 1010.9 |
| 20260507081906 | 68 | 307 | 4.0 | 11.0 | 0.00 | 0.00 | 0.00 | 54 | 1011.0 |
| 20260507081806 | 68 | 307 | 4.0 | 11.0 | 0.00 | 0.00 | 0.00 | 54 | 1010.9 |
| 20260507081705 | 68 | 308 | 4.0 | 11.0 | 0.00 | 0.00 | 0.00 | 54 | 1010.8 |
| 20260507081606 | 68 | 308 | 4.0 | 11.0 | 0.00 | 0.00 | 0.00 | 54 | 1010.7 |
| 20260507081519 | 68 | 307 | 4.0 | 10.0 | 0.00 | 0.00 | 0.00 | 54 | 1010.7 |
| 20260507081507 | 68 | 310 | 4.0 | 10.0 | 0.00 | 0.00 | 0.00 | 54 | 1010.7 |
| 20260507081406 | 68 | 313 | 4.0 | 10.0 | 0.00 | 0.00 | 0.00 | 54 | 1010.7 |
| 20260507081204 | 68 | 313 | 4.0 | 10.0 | 0.00 | 0.00 | 0.00 | 54 | 1010.8 |
| 20260507081105 | 68 | 315 | 4.0 | 10.0 | 0.00 | 0.00 | 0.00 | 54 | 1011.1 |
| 20260507081006 | 68 | 316 | 4.0 | 10.0 | 0.00 | 0.00 | 0.00 | 54 | 1010.8 |
| 20260507080906 | 69 | 312 | 3.0 | 10.0 | 0.00 | 0.00 | 0.00 | 54 | 1010.7 |
| 20260507080806 | 69 | 311 | 3.0 | 10.0 | 0.00 | 0.00 | 0.00 | 55 | 1010.9 |
| 20260507080705 | 69 | 311 | 3.0 | 10.0 | 0.00 | 0.00 | 0.00 | 55 | 1010.6 |
| 20260507080605 | 69 | 311 | 2.0 | 8.0 | 0.00 | 0.00 | 0.00 | 55 | 1010.9 |
| 20260507080506 | 69 | 311 | 2.0 | 7.0 | 0.00 | 0.00 | 0.00 | 54 | 1010.8 |
| 20260507080405 | 69 | 308 | 2.0 | 7.0 | 0.00 | 0.00 | 0.00 | 54 | 1010.8 |
| 20260507080321 | 69 | 304 | 2.0 | 7.0 | 0.00 | 0.00 | 0.00 | 54 | 1010.8 |
| 20260507080305 | 69 | 301 | 2.0 | 7.0 | 0.00 | 0.00 | 0.00 | 54 | 1010.9 |
| 20260507080205 | 69 | 295 | 2.0 | 6.0 | 0.00 | 0.01 | 0.00 | 54 | 1010.9 |
| 20260507080006 | 69 | 283 | 1.0 | 7.0 | 0.00 | 0.05 | 0.00 | 54 | 1010.7 |
| 20260507075904 | 69 | 286 | 1.0 | 7.0 | 0.00 | 0.05 | 0.00 | 54 | 1011.2 |
| 20260507075805 | 69 | 286 | 1.0 | 7.0 | 0.00 | 0.05 | 0.00 | 54 | 1010.9 |
| 20260507075705 | 69 | 287 | 2.0 | 7.0 | 0.00 | 0.05 | 0.00 | 54 | 1011.0 |
| 20260507075605 | 69 | 282 | 2.0 | 7.0 | 0.00 | 0.05 | 0.00 | 54 | 1011.0 |
| 20260507075505 | 69 | 278 | 2.0 | 7.0 | 0.00 | 0.05 | 0.00 | 54 | 1010.9 |
| 20260507075307 | 69 | 272 | 2.0 | 7.0 | 0.00 | 0.05 | 0.00 | 54 | 1010.7 |
| 20260507075221 | 69 | 276 | 2.0 | 7.0 | 0.00 | 0.05 | 0.00 | 54 | 1010.7 |
| 20260507075204 | 69 | 280 | 2.0 | 7.0 | 0.00 | 0.05 | 0.00 | 55 | 1010.9 |
| 20260507075120 | 69 | 286 | 2.0 | 7.0 | 0.00 | 0.05 | 0.00 | 55 | 1010.9 |
| 20260507075106 | 69 | 285 | 2.0 | 7.0 | 0.00 | 0.05 | 0.00 | 55 | 1010.7 |
| 20260507074921 | 69 | 296 | 2.0 | 7.0 | 0.00 | 0.05 | 0.00 | 55 | 1010.6 |
| 20260507074822 | 69 | 299 | 2.0 | 7.0 | 0.00 | 0.05 | 0.00 | 55 | 1010.8 |
| 20260507074806 | 69 | 299 | 2.0 | 7.0 | 0.00 | 0.05 | 0.00 | 55 | 1010.4 |
| 20260507074506 | 69 | 310 | 2.0 | 7.0 | 0.00 | 0.05 | 0.00 | 55 | 1010.7 |
| 20260507074406 | 69 | 315 | 2.0 | 7.0 | 0.00 | 0.05 | 0.00 | 55 | 1010.6 |
| 20260507074304 | 69 | 319 | 2.0 | 7.0 | 0.00 | 0.05 | 0.00 | 55 | 1010.4 |
| 20260507074206 | 69 | 319 | 2.0 | 7.0 | 0.00 | 0.05 | 0.00 | 55 | 1010.6 |
| 20260507074104 | 69 | 324 | 2.0 | 6.0 | 0.00 | 0.05 | 0.00 | 56 | 1010.5 |
| 20260507074018 | 69 | 324 | 2.0 | 6.0 | 0.00 | 0.05 | 0.00 | 56 | 1010.5 |
| 20260507074006 | 69 | 324 | 2.0 | 6.0 | 0.00 | 0.05 | 0.00 | 56 | 1010.4 |
| 20260507073906 | 69 | 318 | 2.0 | 6.0 | 0.00 | 0.05 | 0.00 | 56 | 1010.4 |
| 20260507073822 | 69 | 316 | 2.0 | 6.0 | 0.00 | 0.05 | 0.00 | 55 | 1010.4 |
| 20260507073705 | 69 | 309 | 2.0 | 4.0 | 0.00 | 0.05 | 0.00 | 56 | 1010.5 |
| 20260507073506 | 69 | 303 | 2.0 | 4.0 | 0.00 | 0.05 | 0.00 | 56 | 1010.3 |
| 20260507073405 | 70 | 299 | 2.0 | 4.0 | 0.00 | 0.05 | 0.00 | 56 | 1010.4 |
| 20260507073306 | 70 | 293 | 2.0 | 4.0 | 0.00 | 0.05 | 0.00 | 56 | 1010.5 |
| 20260507073219 | 70 | 289 | 2.0 | 4.0 | 0.00 | 0.05 | 0.00 | 56 | 1010.5 |
| 20260507073207 | 70 | 288 | 2.0 | 4.0 | 0.00 | 0.05 | 0.00 | 56 | 1010.6 |
| 20260507073105 | 70 | 285 | 2.0 | 6.0 | 0.00 | 0.05 | 0.00 | 56 | 1010.5 |
| 20260507073020 | 70 | 283 | 2.0 | 6.0 | 0.00 | 0.05 | 0.00 | 56 | 1010.5 |
| 20260507072904 | 70 | 281 | 2.0 | 6.0 | 0.00 | 0.05 | 0.00 | 55 | 1010.4 |
| 20260507072705 | 70 | 278 | 2.0 | 6.0 | 0.00 | 0.05 | 0.00 | 56 | 1010.4 |
| 20260507072605 | 70 | 273 | 2.0 | 6.0 | 0.00 | 0.05 | 0.00 | 56 | 1010.4 |
| 20260507072505 | 70 | 271 | 2.0 | 6.0 | 0.00 | 0.05 | 0.00 | 56 | 1010.5 |
| 20260507072420 | 70 | 272 | 1.0 | 6.0 | 0.00 | 0.05 | 0.00 | 56 | 1010.5 |
| 20260507072406 | 70 | 274 | 1.0 | 6.0 | 0.00 | 0.05 | 0.00 | 56 | 1010.4 |
| 20260507072307 | 70 | 285 | 2.0 | 6.0 | 0.00 | 0.05 | 0.00 | 56 | 1010.4 |
| 20260507072106 | 70 | 294 | 1.0 | 4.0 | 0.00 | 0.05 | 0.00 | 56 | 1010.5 |
| 20260507072006 | 70 | 291 | 1.0 | 4.0 | 0.00 | 0.05 | 0.00 | 56 | 1010.2 |
| 20260507071906 | 70 | 288 | 1.0 | 3.0 | 0.00 | 0.05 | 0.00 | 56 | 1010.3 |
| 20260507071806 | 70 | 294 | 1.0 | 3.0 | 0.00 | 0.05 | 0.00 | 56 | 1010.3 |
| 20260507071705 | 70 | 297 | 1.0 | 3.0 | 0.00 | 0.05 | 0.00 | 56 | 1010.0 |
| 20260507071618 | 70 | 300 | 1.0 | 3.0 | 0.00 | 0.05 | 0.00 | 56 | 1010.0 |
| 20260507071604 | 70 | 302 | 1.0 | 3.0 | 0.00 | 0.05 | 0.00 | 56 | 1010.2 |
| 20260507071506 | 70 | 305 | 1.0 | 3.0 | 0.00 | 0.05 | 0.00 | 56 | 1010.1 |
| 20260507071306 | 70 | 281 | 1.0 | 3.0 | 0.00 | 0.05 | 0.00 | 56 | 1010.0 |
| 20260507071204 | 70 | 274 | 1.0 | 3.0 | 0.00 | 0.05 | 0.00 | 57 | 1010.3 |
| 20260507071120 | 70 | 271 | 1.0 | 4.0 | 0.00 | 0.05 | 0.00 | 57 | 1010.3 |
| 20260507071106 | 70 | 271 | 1.0 | 4.0 | 0.00 | 0.05 | 0.00 | 57 | 1010.2 |
| 20260507071006 | 70 | 275 | 1.0 | 4.0 | 0.00 | 0.05 | 0.00 | 57 | 1010.1 |
| 20260507070806 | 71 | 273 | 1.0 | 4.0 | 0.00 | 0.05 | 0.00 | 57 | 1010.4 |
| 20260507070705 | 71 | 279 | 1.0 | 4.0 | 0.00 | 0.05 | 0.00 | 57 | 1010.1 |
| 20260507070604 | 71 | 280 | 1.0 | 4.0 | 0.00 | 0.05 | 0.00 | 57 | 1010.3 |
| 20260507070506 | 71 | 274 | 1.0 | 4.0 | 0.00 | 0.05 | 0.00 | 57 | 1010.1 |
| 20260507070406 | 71 | 274 | 1.0 | 6.0 | 0.00 | 0.05 | 0.00 | 57 | 1010.1 |
| 20260507070306 | 71 | 277 | 1.0 | 6.0 | 0.00 | 0.05 | 0.00 | 57 | 1010.0 |
| 20260507070204 | 71 | 288 | 1.0 | 6.0 | 0.00 | 0.05 | 0.00 | 57 | 1010.2 |
| 20260507070105 | 71 | 296 | 1.0 | 6.0 | 0.00 | 0.05 | 0.00 | 57 | 1010.1 |
| 20260507070010 | 71 | 297 | 1.0 | 6.0 | 0.00 | 0.05 | 0.00 | 57 | 1010.1 |
| 20260507065906 | 71 | 299 | 2.0 | 6.0 | 0.00 | 0.05 | 0.00 | 57 | 1010.1 |
| 20260507065806 | 71 | 300 | 2.0 | 6.0 | 0.00 | 0.05 | 0.00 | 57 | 1010.2 |
| 20260507065706 | 71 | 301 | 2.0 | 6.0 | 0.00 | 0.05 | 0.00 | 57 | 1010.1 |
| 20260507065606 | 71 | 303 | 2.0 | 6.0 | 0.00 | 0.05 | 0.00 | 57 | 1010.1 |
| 20260507065519 | 71 | 307 | 2.0 | 6.0 | 0.00 | 0.05 | 0.00 | 57 | 1010.1 |
| 20260507065505 | 71 | 308 | 2.0 | 6.0 | 0.00 | 0.05 | 0.00 | 57 | 1010.0 |
| 20260507065406 | 71 | 313 | 2.0 | 6.0 | 0.00 | 0.05 | 0.00 | 58 | 1010.3 |
| 20260507065205 | 72 | 315 | 2.0 | 4.0 | 0.00 | 0.05 | 0.00 | 58 | 1010.0 |
| 20260507065106 | 72 | 321 | 2.0 | 4.0 | 0.00 | 0.05 | 0.00 | 58 | 1010.0 |
| 20260507065006 | 72 | 322 | 2.0 | 4.0 | 0.00 | 0.05 | 0.00 | 58 | 1010.2 |
| 20260507064906 | 72 | 324 | 2.0 | 4.0 | 0.00 | 0.05 | 0.00 | 58 | 1010.0 |
| 20260507064805 | 72 | 321 | 2.0 | 4.0 | 0.00 | 0.05 | 0.00 | 58 | 1010.1 |
| 20260507064705 | 72 | 320 | 2.0 | 4.0 | 0.00 | 0.05 | 0.00 | 58 | 1010.2 |
| 20260507064606 | 72 | 320 | 2.0 | 4.0 | 0.00 | 0.05 | 0.00 | 58 | 1009.9 |
| 20260507064506 | 72 | 311 | 2.0 | 4.0 | 0.00 | 0.05 | 0.00 | 59 | 1010.0 |
| 20260507064405 | 72 | 309 | 2.0 | 7.0 | 0.00 | 0.05 | 0.00 | 59 | 1010.1 |
| 20260507064318 | 72 | 311 | 2.0 | 7.0 | 0.00 | 0.05 | 0.00 | 59 | 1010.1 |
| 20260507064305 | 72 | 311 | 2.0 | 7.0 | 0.00 | 0.05 | 0.00 | 59 | 1009.7 |
| 20260507064205 | 72 | 309 | 2.0 | 7.0 | 0.00 | 0.05 | 0.00 | 59 | 1010.0 |
| 20260507064005 | 72 | 306 | 2.0 | 8.0 | 0.00 | 0.05 | 0.00 | 59 | 1009.9 |
| 20260507063904 | 72 | 301 | 2.0 | 8.0 | 0.00 | 0.05 | 0.00 | 59 | 1009.9 |
| 20260507063805 | 72 | 304 | 2.0 | 8.0 | 0.00 | 0.05 | 0.00 | 59 | 1009.8 |
| 20260507063706 | 72 | 305 | 2.0 | 8.0 | 0.00 | 0.05 | 0.00 | 59 | 1010.0 |
| 20260507063606 | 72 | 311 | 2.0 | 8.0 | 0.00 | 0.05 | 0.00 | 59 | 1009.8 |
| 20260507063505 | 72 | 318 | 2.0 | 8.0 | 0.00 | 0.05 | 0.00 | 60 | 1009.8 |
| 20260507063419 | 72 | 325 | 2.0 | 8.0 | 0.00 | 0.05 | 0.00 | 60 | 1009.8 |
| 20260507063405 | 72 | 324 | 2.0 | 8.0 | 0.00 | 0.05 | 0.00 | 60 | 1009.6 |
| 20260507063306 | 72 | 321 | 2.0 | 8.0 | 0.00 | 0.05 | 0.00 | 60 | 1009.6 |
| 20260507063106 | 72 | 314 | 1.0 | 6.0 | 0.00 | 0.05 | 0.00 | 60 | 1010.1 |
| 20260507063006 | 72 | 313 | 1.0 | 6.0 | 0.00 | 0.05 | 0.00 | 60 | 1009.7 |
| 20260507062906 | 72 | 311 | 1.0 | 6.0 | 0.00 | 0.05 | 0.00 | 60 | 1009.8 |
| 20260507062821 | 72 | 309 | 2.0 | 6.0 | 0.00 | 0.05 | 0.00 | 60 | 1009.8 |
| 20260507062806 | 72 | 309 | 2.0 | 6.0 | 0.00 | 0.05 | 0.00 | 60 | 1009.7 |
| 20260507062719 | 72 | 307 | 1.0 | 6.0 | 0.00 | 0.05 | 0.00 | 60 | 1009.7 |
| 20260507062706 | 72 | 308 | 1.0 | 6.0 | 0.00 | 0.05 | 0.00 | 60 | 1009.6 |
| 20260507062405 | 72 | 296 | 1.0 | 4.0 | 0.00 | 0.05 | 0.00 | 60 | 1009.6 |
| 20260507062306 | 72 | 295 | 1.0 | 4.0 | 0.00 | 0.05 | 0.00 | 60 | 1009.9 |
| 20260507062220 | 72 | 293 | 1.0 | 4.0 | 0.00 | 0.05 | 0.00 | 61 | 1009.9 |
| 20260507062205 | 72 | 293 | 1.0 | 4.0 | 0.00 | 0.05 | 0.00 | 61 | 1009.9 |
| 20260507062119 | 72 | 289 | 1.0 | 4.0 | 0.00 | 0.05 | 0.00 | 61 | 1009.9 |
| 20260507062104 | 72 | 287 | 1.0 | 4.0 | 0.00 | 0.05 | 0.00 | 61 | 1009.7 |
| 20260507062018 | 73 | 285 | 1.0 | 4.0 | 0.00 | 0.05 | 0.00 | 61 | 1009.7 |
| 20260507061704 | 73 | 312 | 1.0 | 6.0 | 0.00 | 0.05 | 0.00 | 61 | 1009.8 |
| 20260507061604 | 73 | 328 | 1.0 | 6.0 | 0.00 | 0.05 | 0.00 | 61 | 1009.7 |
| 20260507061505 | 73 | 340 | 1.0 | 6.0 | 0.00 | 0.05 | 0.00 | 61 | 1009.7 |
| 20260507061405 | 73 | 338 | 1.0 | 6.0 | 0.00 | 0.05 | 0.00 | 61 | 1009.7 |
| 20260507061305 | 73 | 339 | 1.0 | 6.0 | 0.00 | 0.05 | 0.00 | 61 | 1009.7 |
| 20260507061206 | 73 | 343 | 1.0 | 6.0 | 0.00 | 0.05 | 0.00 | 61 | 1009.8 |
| 20260507061106 | 73 | 342 | 1.0 | 6.0 | 0.00 | 0.05 | 0.00 | 61 | 1009.6 |
| 20260507061006 | 73 | 337 | 1.0 | 6.0 | 0.00 | 0.05 | 0.00 | 61 | 1009.4 |
| 20260507060906 | 73 | 334 | 1.0 | 6.0 | 0.00 | 0.05 | 0.00 | 61 | 1009.6 |
| 20260507060806 | 73 | 330 | 1.0 | 6.0 | 0.00 | 0.05 | 0.00 | 61 | 1009.4 |
| 20260507060706 | 73 | 324 | 1.0 | 6.0 | 0.00 | 0.05 | 0.00 | 62 | 1009.5 |
| 20260507060605 | 73 | 327 | 1.0 | 3.0 | 0.00 | 0.05 | 0.00 | 62 | 1009.5 |
| 20260507060505 | 73 | 324 | 1.0 | 3.0 | 0.00 | 0.05 | 0.00 | 62 | 1009.5 |
| 20260507060405 | 73 | 327 | 1.0 | 2.0 | 0.00 | 0.05 | 0.00 | 62 | 1009.5 |
| 20260507060305 | 73 | 333 | 1.0 | 2.0 | 0.00 | 0.05 | 0.00 | 62 | 1009.5 |
| 20260507060206 | 73 | 337 | 1.0 | 2.0 | 0.00 | 0.05 | 0.00 | 61 | 1009.7 |
| 20260507060105 | 73 | 341 | 1.0 | 2.0 | 0.00 | 0.05 | 0.00 | 62 | 1009.6 |
| 20260507060005 | 73 | 352 | 1.0 | 3.0 | 0.00 | 0.05 | 0.00 | 61 | 1009.6 |
| 20260507055906 | 74 | 341 | 1.0 | 4.0 | 0.00 | 0.05 | 0.00 | 61 | 1009.6 |
| 20260507055807 | 74 | 334 | 1.0 | 4.0 | 0.00 | 0.05 | 0.00 | 62 | 1009.8 |
| 20260507055704 | 74 | 336 | 1.0 | 4.0 | 0.00 | 0.05 | 0.00 | 62 | 1009.6 |
| 20260507055606 | 74 | 307 | 1.0 | 4.0 | 0.00 | 0.05 | 0.00 | 62 | 1009.6 |
| 20260507055506 | 74 | 293 | 1.0 | 4.0 | 0.00 | 0.05 | 0.00 | 62 | 1009.5 |
| 20260507055406 | 74 | 293 | 1.0 | 4.0 | 0.00 | 0.05 | 0.00 | 62 | 1009.5 |
| 20260507055306 | 74 | 291 | 1.0 | 6.0 | 0.00 | 0.05 | 0.00 | 61 | 1009.6 |
| 20260507055206 | 74 | 290 | 1.0 | 6.0 | 0.00 | 0.05 | 0.00 | 62 | 1009.6 |
| 20260507055109 | 74 | 293 | 1.0 | 6.0 | 0.00 | 0.05 | 0.00 | 62 | 1009.6 |
| 20260507055021 | 74 | 293 | 1.0 | 6.0 | 0.00 | 0.05 | 0.00 | 62 | 1009.6 |
| 20260507055006 | 74 | 292 | 1.0 | 6.0 | 0.00 | 0.05 | 0.00 | 62 | 1009.5 |
| 20260507054906 | 74 | 296 | 1.0 | 6.0 | 0.00 | 0.05 | 0.00 | 62 | 1009.5 |
| 20260507054706 | 74 | 302 | 2.0 | 6.0 | 0.00 | 0.05 | 0.00 | 62 | 1009.5 |
| 20260507054606 | 74 | 306 | 2.0 | 6.0 | 0.00 | 0.05 | 0.00 | 62 | 1009.5 |
| 20260507054506 | 74 | 313 | 2.0 | 6.0 | 0.00 | 0.05 | 0.00 | 62 | 1009.3 |
| 20260507054406 | 74 | 314 | 2.0 | 6.0 | 0.00 | 0.05 | 0.00 | 62 | 1009.6 |
| 20260507054306 | 74 | 314 | 2.0 | 6.0 | 0.00 | 0.05 | 0.00 | 62 | 1009.5 |
| 20260507054206 | 74 | 314 | 2.0 | 8.0 | 0.00 | 0.05 | 0.00 | 62 | 1009.6 |
| 20260507054106 | 74 | 315 | 2.0 | 8.0 | 0.00 | 0.05 | 0.00 | 62 | 1009.3 |
| 20260507054006 | 74 | 314 | 2.0 | 8.0 | 0.00 | 0.05 | 0.00 | 62 | 1009.5 |
| 20260507053905 | 74 | 314 | 2.0 | 8.0 | 0.00 | 0.05 | 0.00 | 63 | 1009.5 |
| 20260507053805 | 74 | 319 | 2.0 | 8.0 | 0.00 | 0.05 | 0.00 | 63 | 1009.3 |
| 20260507053707 | 74 | 320 | 2.0 | 8.0 | 0.00 | 0.05 | 0.00 | 63 | 1009.4 |
| 20260507053606 | 74 | 321 | 2.0 | 8.0 | 0.00 | 0.05 | 0.00 | 63 | 1009.4 |
| 20260507053506 | 74 | 320 | 2.0 | 8.0 | 0.00 | 0.05 | 0.00 | 63 | 1009.3 |
| 20260507053406 | 74 | 322 | 2.0 | 8.0 | 0.00 | 0.05 | 0.00 | 63 | 1009.3 |
| 20260507053319 | 74 | 324 | 2.0 | 8.0 | 0.00 | 0.05 | 0.00 | 63 | 1009.3 |
| 20260507053306 | 74 | 324 | 2.0 | 8.0 | 0.00 | 0.05 | 0.00 | 63 | 1009.4 |
| 20260507053206 | 74 | 330 | 1.0 | 8.0 | 0.00 | 0.05 | 0.00 | 63 | 1009.3 |
| 20260507053006 | 74 | 335 | 1.0 | 4.0 | 0.00 | 0.05 | 0.00 | 63 | 1009.4 |
| 20260507052906 | 74 | 337 | 1.0 | 4.0 | 0.00 | 0.05 | 0.00 | 63 | 1009.2 |
| 20260507052819 | 75 | 340 | 1.0 | 4.0 | 0.00 | 0.05 | 0.00 | 63 | 1009.2 |
| 20260507052806 | 75 | 342 | 1.0 | 3.0 | 0.00 | 0.05 | 0.00 | 63 | 1009.4 |
| 20260507052706 | 75 | 343 | 1.0 | 7.0 | 0.00 | 0.05 | 0.00 | 63 | 1009.4 |
| 20260507052620 | 75 | 341 | 1.0 | 7.0 | 0.00 | 0.05 | 0.00 | 63 | 1009.4 |
| 20260507052506 | 75 | 346 | 1.0 | 7.0 | 0.00 | 0.05 | 0.00 | 63 | 1009.2 |
| 20260507052306 | 75 | 348 | 1.0 | 7.0 | 0.00 | 0.05 | 0.00 | 63 | 1009.3 |
| 20260507052205 | 75 | 347 | 1.0 | 7.0 | 0.00 | 0.05 | 0.00 | 63 | 1009.3 |
| 20260507052106 | 75 | 342 | 1.0 | 7.0 | 0.00 | 0.05 | 0.00 | 63 | 1009.3 |
| 20260507052006 | 75 | 340 | 1.0 | 7.0 | 0.00 | 0.05 | 0.00 | 62 | 1009.3 |
| 20260507051906 | 75 | 341 | 2.0 | 7.0 | 0.00 | 0.05 | 0.00 | 62 | 1009.3 |
| 20260507051805 | 75 | 338 | 2.0 | 7.0 | 0.00 | 0.05 | 0.00 | 62 | 1009.4 |
| 20260507051705 | 75 | 342 | 2.0 | 7.0 | 0.00 | 0.05 | 0.00 | 62 | 1009.2 |
| 20260507051620 | 75 | 343 | 2.0 | 6.0 | 0.00 | 0.05 | 0.00 | 62 | 1009.2 |
| 20260507051605 | 75 | 343 | 2.0 | 6.0 | 0.00 | 0.05 | 0.00 | 62 | 1009.3 |
| 20260507051506 | 75 | 340 | 2.0 | 6.0 | 0.00 | 0.05 | 0.00 | 62 | 1009.2 |
| 20260507051319 | 75 | 338 | 2.0 | 8.0 | 0.00 | 0.05 | 0.00 | 62 | 1009.2 |
| 20260507051305 | 75 | 338 | 2.0 | 8.0 | 0.00 | 0.05 | 0.00 | 62 | 1009.4 |
| 20260507051204 | 76 | 336 | 2.0 | 8.0 | 0.00 | 0.05 | 0.00 | 62 | 1009.4 |
| 20260507051119 | 76 | 340 | 2.0 | 8.0 | 0.00 | 0.05 | 0.00 | 62 | 1009.4 |
| 20260507051005 | 76 | 336 | 2.0 | 8.0 | 0.00 | 0.05 | 0.00 | 62 | 1009.3 |
| 20260507050805 | 76 | 328 | 2.0 | 10.0 | 0.00 | 0.05 | 0.00 | 63 | 1009.6 |
| 20260507050706 | 76 | 320 | 2.0 | 10.0 | 0.00 | 0.05 | 0.00 | 63 | 1009.2 |
| 20260507050606 | 76 | 313 | 2.0 | 10.0 | 0.00 | 0.05 | 0.00 | 63 | 1009.4 |
| 20260507050506 | 76 | 309 | 2.0 | 10.0 | 0.00 | 0.05 | 0.00 | 63 | 1009.5 |
| 20260507050406 | 76 | 299 | 2.0 | 10.0 | 0.00 | 0.05 | 0.00 | 63 | 1009.4 |
| 20260507050306 | 76 | 301 | 2.0 | 10.0 | 0.00 | 0.05 | 0.00 | 63 | 1009.4 |
| 20260507050206 | 76 | 304 | 2.0 | 10.0 | 0.00 | 0.05 | 0.00 | 63 | 1009.7 |
| 20260507050105 | 76 | 305 | 2.0 | 10.0 | 0.00 | 0.05 | 0.00 | 63 | 1009.5 |
| 20260507050006 | 76 | 311 | 2.0 | 10.0 | 0.00 | 0.05 | 0.00 | 63 | 1009.4 |
| 20260507045905 | 76 | 319 | 2.0 | 6.0 | 0.00 | 0.05 | 0.00 | 63 | 1009.5 |
| 20260507045806 | 76 | 324 | 2.0 | 6.0 | 0.00 | 0.05 | 0.00 | 63 | 1009.3 |
| 20260507045706 | 76 | 327 | 2.0 | 6.0 | 0.00 | 0.05 | 0.00 | 64 | 1009.4 |
| 20260507045606 | 76 | 330 | 2.0 | 6.0 | 0.00 | 0.05 | 0.00 | 63 | 1009.4 |
| 20260507045506 | 76 | 332 | 2.0 | 6.0 | 0.00 | 0.05 | 0.00 | 63 | 1009.4 |
| 20260507045406 | 76 | 337 | 2.0 | 8.0 | 0.00 | 0.05 | 0.00 | 64 | 1009.4 |
| 20260507045306 | 76 | 335 | 2.0 | 8.0 | 0.00 | 0.05 | 0.00 | 64 | 1009.5 |
| 20260507045206 | 76 | 331 | 2.0 | 8.0 | 0.00 | 0.05 | 0.00 | 64 | 1009.3 |
| 20260507045106 | 76 | 328 | 2.0 | 8.0 | 0.00 | 0.05 | 0.00 | 64 | 1009.4 |
| 20260507045004 | 76 | 329 | 2.0 | 8.0 | 0.00 | 0.05 | 0.00 | 63 | 1009.2 |
| 20260507044920 | 76 | 333 | 2.0 | 8.0 | 0.00 | 0.05 | 0.00 | 64 | 1009.2 |
| 20260507044905 | 76 | 333 | 3.0 | 8.0 | 0.00 | 0.05 | 0.00 | 64 | 1009.2 |
| 20260507044805 | 76 | 331 | 3.0 | 8.0 | 0.00 | 0.05 | 0.00 | 63 | 1009.6 |
| 20260507044606 | 76 | 335 | 3.0 | 8.0 | 0.00 | 0.05 | 0.00 | 63 | 1009.5 |
| 20260507044506 | 76 | 334 | 3.0 | 8.0 | 0.00 | 0.05 | 0.00 | 63 | 1009.3 |
| 20260507044421 | 76 | 333 | 3.0 | 8.0 | 0.00 | 0.05 | 0.00 | 64 | 1009.3 |
| 20260507044406 | 76 | 332 | 3.0 | 8.0 | 0.00 | 0.05 | 0.00 | 64 | 1009.5 |
| 20260507044305 | 76 | 329 | 3.0 | 8.0 | 0.00 | 0.05 | 0.00 | 64 | 1009.4 |
| 20260507044106 | 76 | 332 | 3.0 | 8.0 | 0.00 | 0.05 | 0.00 | 64 | 1009.4 |
| 20260507044019 | 76 | 326 | 2.0 | 8.0 | 0.00 | 0.05 | 0.00 | 64 | 1009.4 |
| 20260507044006 | 76 | 325 | 2.0 | 8.0 | 0.00 | 0.05 | 0.00 | 64 | 1009.4 |
| 20260507043920 | 76 | 318 | 2.0 | 8.0 | 0.00 | 0.05 | 0.00 | 64 | 1009.4 |
| 20260507043905 | 76 | 317 | 2.0 | 8.0 | 0.00 | 0.05 | 0.00 | 64 | 1009.6 |
| 20260507043605 | 76 | 305 | 2.0 | 7.0 | 0.00 | 0.05 | 0.00 | 65 | 1009.4 |
| 20260507043505 | 76 | 301 | 2.0 | 7.0 | 0.00 | 0.05 | 0.00 | 65 | 1009.4 |
| 20260507043405 | 76 | 304 | 2.0 | 7.0 | 0.00 | 0.05 | 0.00 | 64 | 1009.3 |
| 20260507043321 | 76 | 312 | 2.0 | 8.0 | 0.00 | 0.05 | 0.00 | 65 | 1009.3 |
| 20260507043305 | 76 | 313 | 2.0 | 9.0 | 0.00 | 0.05 | 0.00 | 65 | 1009.5 |
| 20260507043206 | 76 | 316 | 2.0 | 9.0 | 0.00 | 0.05 | 0.00 | 65 | 1009.6 |
| 20260507043121 | 76 | 315 | 3.0 | 9.0 | 0.00 | 0.05 | 0.00 | 65 | 1009.6 |
| 20260507043006 | 76 | 316 | 3.0 | 9.0 | 0.00 | 0.05 | 0.00 | 64 | 1009.5 |
| 20260507042804 | 76 | 319 | 3.0 | 9.0 | 0.00 | 0.05 | 0.00 | 64 | 1009.5 |
| 20260507042705 | 76 | 320 | 3.0 | 9.0 | 0.00 | 0.05 | 0.00 | 63 | 1009.6 |
| 20260507042605 | 76 | 320 | 3.0 | 9.0 | 0.00 | 0.05 | 0.00 | 64 | 1009.6 |
| 20260507042505 | 76 | 323 | 3.0 | 9.0 | 0.00 | 0.05 | 0.00 | 64 | 1009.8 |
| 20260507042406 | 76 | 325 | 3.0 | 9.0 | 0.00 | 0.05 | 0.00 | 64 | 1009.7 |
| 20260507042307 | 76 | 327 | 3.0 | 10.0 | 0.00 | 0.05 | 0.00 | 65 | 1009.6 |
| 20260507042205 | 76 | 330 | 3.0 | 10.0 | 0.00 | 0.05 | 0.00 | 65 | 1009.8 |
| 20260507042107 | 76 | 337 | 3.0 | 10.0 | 0.00 | 0.05 | 0.00 | 65 | 1009.8 |
| 20260507042005 | 76 | 335 | 3.0 | 10.0 | 0.00 | 0.05 | 0.00 | 65 | 1009.8 |
| 20260507041919 | 76 | 336 | 3.0 | 10.0 | 0.00 | 0.05 | 0.00 | 65 | 1009.8 |
| 20260507041905 | 76 | 336 | 3.0 | 10.0 | 0.00 | 0.05 | 0.00 | 65 | 1009.6 |
| 20260507041806 | 76 | 336 | 3.0 | 10.0 | 0.00 | 0.05 | 0.00 | 65 | 1009.7 |
| 20260507041606 | 76 | 334 | 3.0 | 10.0 | 0.00 | 0.05 | 0.00 | 65 | 1009.7 |
| 20260507041506 | 77 | 328 | 4.0 | 10.0 | 0.00 | 0.05 | 0.00 | 65 | 1009.7 |
| 20260507041405 | 77 | 323 | 4.0 | 10.0 | 0.00 | 0.05 | 0.00 | 65 | 1009.5 |
| 20260507041305 | 77 | 316 | 4.0 | 16.0 | 0.00 | 0.05 | 0.00 | 66 | 1009.8 |
| 20260507041220 | 77 | 313 | 4.0 | 16.0 | 0.00 | 0.05 | 0.00 | 65 | 1009.8 |
| 20260507041206 | 77 | 313 | 4.0 | 16.0 | 0.00 | 0.05 | 0.00 | 65 | 1009.7 |
| 20260507041105 | 77 | 311 | 4.0 | 16.0 | 0.00 | 0.05 | 0.00 | 65 | 1009.9 |
| 20260507040919 | 77 | 308 | 4.0 | 16.0 | 0.00 | 0.05 | 0.00 | 66 | 1009.8 |
| 20260507040906 | 77 | 308 | 4.0 | 16.0 | 0.00 | 0.05 | 0.00 | 66 | 1009.7 |
| 20260507040806 | 77 | 305 | 4.0 | 16.0 | 0.00 | 0.05 | 0.00 | 66 | 1009.6 |
| 20260507040719 | 77 | 303 | 4.0 | 16.0 | 0.00 | 0.05 | 0.00 | 66 | 1009.6 |
| 20260507040606 | 77 | 303 | 4.0 | 16.0 | 0.00 | 0.05 | 0.00 | 67 | 1009.6 |
| 20260507040404 | 77 | 309 | 4.0 | 16.0 | 0.00 | 0.05 | 0.00 | 67 | 1009.7 |
| 20260507040306 | 76 | 312 | 3.0 | 13.0 | 0.00 | 0.05 | 0.00 | 67 | 1009.6 |
| 20260507040204 | 77 | 307 | 4.0 | 13.0 | 0.00 | 0.05 | 0.00 | 67 | 1009.6 |
| 20260507040105 | 77 | 309 | 4.0 | 11.0 | 0.00 | 0.05 | 0.00 | 68 | 1009.6 |
| 20260507040005 | 76 | 313 | 4.0 | 11.0 | 0.00 | 0.05 | 0.00 | 68 | 1009.5 |
| 20260507035905 | 76 | 312 | 4.0 | 11.0 | 0.00 | 0.05 | 0.00 | 68 | 1009.6 |
| 20260507035806 | 76 | 316 | 4.0 | 11.0 | 0.00 | 0.05 | 0.00 | 67 | 1009.5 |
| 20260507035704 | 76 | 314 | 4.0 | 11.0 | 0.00 | 0.05 | 0.00 | 68 | 1009.6 |
| 20260507035605 | 76 | 312 | 4.0 | 11.0 | 0.00 | 0.05 | 0.00 | 67 | 1009.6 |
| 20260507035505 | 76 | 313 | 4.0 | 11.0 | 0.00 | 0.05 | 0.00 | 68 | 1009.7 |
| 20260507035406 | 76 | 314 | 4.0 | 11.0 | 0.00 | 0.05 | 0.00 | 68 | 1009.5 |
| 20260507035306 | 76 | 317 | 4.0 | 11.0 | 0.00 | 0.05 | 0.00 | 68 | 1009.8 |
| 20260507035204 | 76 | 320 | 4.0 | 11.0 | 0.00 | 0.05 | 0.00 | 68 | 1009.7 |
| 20260507035106 | 77 | 317 | 4.0 | 10.0 | 0.00 | 0.05 | 0.00 | 68 | 1009.6 |
| 20260507035006 | 77 | 313 | 4.0 | 14.0 | 0.00 | 0.05 | 0.00 | 69 | 1009.9 |
| 20260507034906 | 77 | 312 | 4.0 | 14.0 | 0.00 | 0.05 | 0.00 | 69 | 1009.9 |
| 20260507034806 | 77 | 307 | 5.0 | 14.0 | 0.00 | 0.05 | 0.00 | 69 | 1009.7 |
| 20260507034704 | 77 | 307 | 5.0 | 14.0 | 0.00 | 0.05 | 0.00 | 69 | 1009.7 |
| 20260507034606 | 77 | 311 | 5.0 | 14.0 | 0.00 | 0.05 | 0.00 | 69 | 1009.7 |
| 20260507034506 | 77 | 310 | 4.0 | 14.0 | 0.00 | 0.05 | 0.00 | 69 | 1009.7 |
| 20260507034406 | 77 | 310 | 4.0 | 14.0 | 0.00 | 0.05 | 0.00 | 70 | 1009.7 |
| 20260507034321 | 77 | 310 | 4.0 | 14.0 | 0.00 | 0.05 | 0.00 | 70 | 1009.7 |
| 20260507034306 | 77 | 308 | 4.0 | 14.0 | 0.00 | 0.05 | 0.00 | 70 | 1009.8 |
| 20260507034206 | 76 | 305 | 4.0 | 14.0 | 0.00 | 0.05 | 0.00 | 70 | 1009.7 |
| 20260507034006 | 76 | 312 | 4.0 | 13.0 | 0.00 | 0.05 | 0.00 | 71 | 1009.7 |
| 20260507033906 | 76 | 315 | 4.0 | 13.0 | 0.00 | 0.05 | 0.00 | 70 | 1009.6 |
| 20260507033806 | 76 | 322 | 4.0 | 11.0 | 0.00 | 0.05 | 0.00 | 71 | 1009.8 |
| 20260507033720 | 76 | 322 | 4.0 | 11.0 | 0.00 | 0.05 | 0.00 | 71 | 1009.8 |
| 20260507033706 | 76 | 324 | 4.0 | 11.0 | 0.00 | 0.05 | 0.00 | 71 | 1009.9 |
| 20260507033605 | 76 | 324 | 4.0 | 11.0 | 0.00 | 0.05 | 0.00 | 70 | 1009.6 |
| 20260507033405 | 76 | 322 | 4.0 | 11.0 | 0.00 | 0.05 | 0.00 | 71 | 1009.8 |
| 20260507033321 | 76 | 323 | 4.0 | 11.0 | 0.00 | 0.05 | 0.00 | 71 | 1009.8 |
| 20260507033304 | 76 | 324 | 4.0 | 11.0 | 0.00 | 0.05 | 0.00 | 71 | 1009.5 |
| 20260507033220 | 76 | 329 | 4.0 | 11.0 | 0.00 | 0.05 | 0.00 | 71 | 1009.5 |
| 20260507033206 | 76 | 329 | 4.0 | 11.0 | 0.00 | 0.05 | 0.00 | 71 | 1009.6 |
| 20260507033120 | 76 | 330 | 4.0 | 11.0 | 0.00 | 0.05 | 0.00 | 71 | 1009.6 |
| 20260507032820 | 76 | 331 | 4.0 | 11.0 | 0.00 | 0.05 | 0.00 | 72 | 1009.8 |
| 20260507032806 | 76 | 330 | 4.0 | 11.0 | 0.00 | 0.05 | 0.00 | 72 | 1009.6 |
| 20260507032720 | 76 | 328 | 4.0 | 11.0 | 0.00 | 0.05 | 0.00 | 72 | 1009.6 |
| 20260507032706 | 76 | 327 | 4.0 | 11.0 | 0.00 | 0.05 | 0.00 | 72 | 1009.6 |
| 20260507032619 | 76 | 331 | 4.0 | 11.0 | 0.00 | 0.05 | 0.00 | 73 | 1009.6 |
| 20260507032306 | 76 | 336 | 3.0 | 9.0 | 0.00 | 0.05 | 0.00 | 73 | 1009.6 |
| 20260507032219 | 77 | 327 | 3.0 | 13.0 | 0.00 | 0.05 | 0.00 | 73 | 1009.6 |
| 20260507032206 | 77 | 326 | 3.0 | 13.0 | 0.00 | 0.05 | 0.00 | 73 | 1009.7 |
| 20260507032105 | 77 | 321 | 3.0 | 13.0 | 0.00 | 0.05 | 0.00 | 74 | 1009.7 |
| 20260507031905 | 77 | 320 | 4.0 | 13.0 | 0.00 | 0.05 | 0.00 | 74 | 1009.6 |
| 20260507031820 | 77 | 318 | 4.0 | 13.0 | 0.00 | 0.05 | 0.00 | 74 | 1009.6 |
| 20260507031806 | 77 | 317 | 4.0 | 13.0 | 0.00 | 0.05 | 0.00 | 75 | 1009.9 |
| 20260507031705 | 77 | 319 | 4.0 | 13.0 | 0.00 | 0.05 | 0.00 | 75 | 1009.8 |
| 20260507031619 | 77 | 315 | 4.0 | 13.0 | 0.00 | 0.05 | 0.00 | 75 | 1009.8 |
| 20260507031519 | 76 | 312 | 4.0 | 13.0 | 0.00 | 0.05 | 0.00 | 74 | 1009.8 |
| 20260507031505 | 76 | 312 | 4.0 | 13.0 | 0.00 | 0.05 | 0.00 | 74 | 1009.9 |
| 20260507031205 | 76 | 318 | 4.0 | 10.0 | 0.00 | 0.05 | 0.00 | 75 | 1009.9 |
| 20260507031106 | 76 | 323 | 5.0 | 10.0 | 0.00 | 0.05 | 0.00 | 74 | 1010.1 |
| 20260507031005 | 76 | 329 | 5.0 | 21.0 | 0.00 | 0.05 | 0.00 | 75 | 1009.9 |
| 20260507030905 | 76 | 326 | 5.0 | 21.0 | 0.00 | 0.05 | 0.00 | 74 | 1009.9 |
| 20260507030806 | 76 | 328 | 5.0 | 21.0 | 0.00 | 0.05 | 0.00 | 75 | 1010.1 |
| 20260507030705 | 76 | 328 | 5.0 | 21.0 | 0.00 | 0.05 | 0.00 | 74 | 1009.8 |
| 20260507030605 | 76 | 333 | 5.0 | 21.0 | 0.00 | 0.05 | 0.00 | 74 | 1010.0 |
| 20260507030505 | 76 | 333 | 5.0 | 21.0 | 0.00 | 0.05 | 0.00 | 75 | 1009.9 |
| 20260507030406 | 76 | 326 | 5.0 | 21.0 | 0.00 | 0.05 | 0.00 | 75 | 1009.9 |
| 20260507030305 | 76 | 324 | 5.0 | 21.0 | 0.00 | 0.05 | 0.00 | 75 | 1010.2 |
| 20260507030219 | 76 | 324 | 5.0 | 21.0 | 0.00 | 0.05 | 0.00 | 75 | 1010.2 |
| 20260507030205 | 76 | 324 | 5.0 | 21.0 | 0.00 | 0.05 | 0.00 | 75 | 1010.1 |
| 20260507030106 | 76 | 323 | 5.0 | 21.0 | 0.00 | 0.05 | 0.00 | 75 | 1010.1 |
| 20260507030020 | 76 | 321 | 4.0 | 21.0 | 0.00 | 0.05 | 0.00 | 75 | 1010.1 |
| 20260507025905 | 76 | 320 | 4.0 | 13.0 | 0.00 | 0.05 | 0.00 | 75 | 1010.0 |
| 20260507025720 | 76 | 322 | 3.0 | 13.0 | 0.00 | 0.05 | 0.00 | 76 | 1010.1 |
| 20260507025705 | 76 | 322 | 3.0 | 13.0 | 0.00 | 0.05 | 0.00 | 76 | 1010.1 |
| 20260507025606 | 76 | 309 | 3.0 | 13.0 | 0.00 | 0.05 | 0.00 | 76 | 1010.0 |
| 20260507025420 | 76 | 323 | 3.0 | 10.0 | 0.00 | 0.05 | 0.00 | 76 | 1010.0 |
| 20260507025406 | 76 | 324 | 3.0 | 10.0 | 0.00 | 0.05 | 0.00 | 76 | 1010.0 |
| 20260507025306 | 76 | 329 | 3.0 | 10.0 | 0.00 | 0.05 | 0.00 | 77 | 1010.0 |
| 20260507025106 | 76 | 328 | 3.0 | 10.0 | 0.00 | 0.05 | 0.00 | 77 | 1010.2 |
| 20260507025006 | 76 | 326 | 3.0 | 10.0 | 0.00 | 0.05 | 0.00 | 77 | 1010.0 |
| 20260507024906 | 76 | 317 | 3.0 | 14.0 | 0.00 | 0.05 | 0.00 | 77 | 1010.1 |
| 20260507024806 | 76 | 313 | 3.0 | 14.0 | 0.00 | 0.05 | 0.00 | 77 | 1010.0 |
| 20260507024704 | 76 | 314 | 3.0 | 14.0 | 0.00 | 0.05 | 0.00 | 77 | 1010.0 |
| 20260507024606 | 76 | 312 | 3.0 | 14.0 | 0.00 | 0.05 | 0.00 | 78 | 1010.0 |
| 20260507024506 | 76 | 312 | 3.0 | 14.0 | 0.00 | 0.05 | 0.00 | 78 | 1009.9 |
| 20260507024406 | 76 | 310 | 3.0 | 14.0 | 0.00 | 0.05 | 0.00 | 77 | 1009.9 |
| 20260507024306 | 76 | 308 | 3.0 | 14.0 | 0.00 | 0.05 | 0.00 | 77 | 1010.1 |
| 20260507024206 | 76 | 307 | 3.0 | 14.0 | 0.00 | 0.05 | 0.00 | 77 | 1009.8 |
| 20260507024106 | 76 | 306 | 3.0 | 14.0 | 0.00 | 0.05 | 0.00 | 77 | 1010.0 |
| 20260507024007 | 76 | 305 | 3.0 | 14.0 | 0.00 | 0.05 | 0.00 | 78 | 1010.5 |
| 20260507023919 | 76 | 313 | 2.0 | 7.0 | 0.00 | 0.05 | 0.00 | 78 | 1010.5 |
| 20260507023906 | 76 | 313 | 2.0 | 7.0 | 0.00 | 0.05 | 0.00 | 78 | 1010.0 |
| 20260507023806 | 76 | 309 | 2.0 | 7.0 | 0.00 | 0.05 | 0.00 | 78 | 1010.1 |
| 20260507023605 | 76 | 299 | 3.0 | 14.0 | 0.00 | 0.05 | 0.00 | 78 | 1009.9 |
| 20260507023506 | 76 | 300 | 3.0 | 14.0 | 0.00 | 0.05 | 0.00 | 79 | 1010.1 |
| 20260507023405 | 76 | 302 | 4.0 | 14.0 | 0.00 | 0.05 | 0.00 | 79 | 1009.9 |
| 20260507023305 | 76 | 304 | 4.0 | 14.0 | 0.00 | 0.05 | 0.00 | 79 | 1010.1 |
| 20260507023205 | 76 | 304 | 4.0 | 14.0 | 0.00 | 0.05 | 0.00 | 78 | 1010.2 |
| 20260507023105 | 76 | 304 | 4.0 | 14.0 | 0.00 | 0.05 | 0.00 | 79 | 1010.2 |
| 20260507023005 | 76 | 302 | 4.0 | 14.0 | 0.00 | 0.05 | 0.00 | 78 | 1010.1 |
| 20260507022904 | 76 | 299 | 4.0 | 14.0 | 0.00 | 0.05 | 0.00 | 79 | 1010.2 |
| 20260507022804 | 76 | 299 | 4.0 | 14.0 | 0.00 | 0.05 | 0.00 | 79 | 1010.2 |
| 20260507022705 | 76 | 298 | 4.0 | 14.0 | 0.00 | 0.05 | 0.00 | 80 | 1010.4 |
| 20260507022605 | 76 | 299 | 4.0 | 14.0 | 0.00 | 0.05 | 0.00 | 80 | 1010.2 |
| 20260507022506 | 76 | 300 | 4.0 | 11.0 | 0.00 | 0.05 | 0.00 | 80 | 1010.5 |
| 20260507022405 | 75 | 304 | 4.0 | 11.0 | 0.00 | 0.05 | 0.00 | 80 | 1010.4 |
| 20260507022306 | 75 | 305 | 4.0 | 11.0 | 0.00 | 0.05 | 0.00 | 79 | 1010.5 |
| 20260507022221 | 75 | 305 | 4.0 | 13.0 | 0.00 | 0.05 | 0.00 | 79 | 1010.5 |
| 20260507022206 | 75 | 305 | 4.0 | 13.0 | 0.00 | 0.05 | 0.00 | 79 | 1010.4 |
| 20260507022106 | 75 | 302 | 5.0 | 13.0 | 0.00 | 0.05 | 0.00 | 80 | 1010.5 |
| 20260507022018 | 75 | 301 | 5.0 | 14.0 | 0.00 | 0.05 | 0.00 | 80 | 1010.5 |
| 20260507021904 | 75 | 303 | 5.0 | 14.0 | 0.00 | 0.05 | 0.00 | 80 | 1010.4 |
| 20260507021705 | 75 | 313 | 5.0 | 14.0 | 0.00 | 0.05 | 0.00 | 81 | 1010.6 |
| 20260507021606 | 75 | 317 | 5.0 | 14.0 | 0.00 | 0.05 | 0.00 | 81 | 1010.4 |
| 20260507021506 | 75 | 315 | 5.0 | 14.0 | 0.00 | 0.05 | 0.00 | 79 | 1010.5 |
| 20260507021405 | 75 | 309 | 5.0 | 14.0 | 0.00 | 0.05 | 0.00 | 81 | 1010.6 |
| 20260507021306 | 74 | 306 | 5.0 | 14.0 | 0.00 | 0.05 | 0.00 | 81 | 1010.6 |
| 20260507021206 | 74 | 308 | 5.0 | 14.0 | 0.00 | 0.05 | 0.00 | 81 | 1010.6 |
| 20260507021104 | 74 | 313 | 4.0 | 14.0 | 0.00 | 0.05 | 0.00 | 81 | 1010.4 |
| 20260507021020 | 74 | 315 | 4.0 | 13.0 | 0.00 | 0.05 | 0.00 | 82 | 1010.4 |
| 20260507021006 | 74 | 315 | 4.0 | 13.0 | 0.00 | 0.05 | 0.00 | 82 | 1010.6 |
| 20260507020905 | 74 | 317 | 4.0 | 13.0 | 0.00 | 0.05 | 0.00 | 82 | 1010.7 |
| 20260507020705 | 74 | 313 | 3.0 | 13.0 | 0.00 | 0.05 | 0.00 | 82 | 1011.0 |
| 20260507020606 | 74 | 304 | 3.0 | 13.0 | 0.00 | 0.05 | 0.00 | 83 | 1010.6 |
| 20260507020506 | 74 | 307 | 4.0 | 13.0 | 0.00 | 0.05 | 0.00 | 83 | 1010.8 |
| 20260507020406 | 74 | 309 | 3.0 | 13.0 | 0.00 | 0.05 | 0.00 | 83 | 1010.9 |
| 20260507020320 | 74 | 310 | 3.0 | 13.0 | 0.00 | 0.05 | 0.00 | 82 | 1010.9 |
| 20260507020306 | 74 | 312 | 3.0 | 13.0 | 0.00 | 0.05 | 0.00 | 82 | 1010.7 |
| 20260507020204 | 74 | 313 | 3.0 | 13.0 | 0.00 | 0.05 | 0.00 | 83 | 1010.6 |
| 20260507020119 | 74 | 311 | 3.0 | 13.0 | 0.00 | 0.05 | 0.00 | 82 | 1010.6 |
| 20260507020005 | 74 | 312 | 3.0 | 13.0 | 0.00 | 0.05 | 0.00 | 83 | 1011.0 |
| 20260507015805 | 73 | 315 | 4.0 | 13.0 | 0.00 | 0.05 | 0.00 | 83 | 1010.8 |
| 20260507015705 | 73 | 313 | 4.0 | 13.0 | 0.00 | 0.05 | 0.00 | 83 | 1010.7 |
| 20260507015619 | 73 | 315 | 4.0 | 15.0 | 0.00 | 0.05 | 0.00 | 83 | 1010.7 |
| 20260507015605 | 73 | 317 | 4.0 | 15.0 | 0.00 | 0.05 | 0.00 | 83 | 1010.8 |
| 20260507015506 | 73 | 312 | 4.0 | 15.0 | 0.00 | 0.05 | 0.00 | 83 | 1010.7 |
| 20260507015306 | 73 | 308 | 4.0 | 15.0 | 0.00 | 0.05 | 0.00 | 83 | 1010.9 |
| 20260507015205 | 73 | 307 | 4.0 | 15.0 | 0.00 | 0.05 | 0.00 | 83 | 1011.0 |
| 20260507015105 | 73 | 309 | 5.0 | 15.0 | 0.00 | 0.05 | 0.00 | 82 | 1010.9 |
| 20260507015006 | 73 | 306 | 5.0 | 15.0 | 0.00 | 0.05 | 0.00 | 82 | 1010.8 |
| 20260507014906 | 73 | 306 | 5.0 | 15.0 | 0.00 | 0.05 | 0.00 | 83 | 1010.6 |
| 20260507014821 | 73 | 303 | 5.0 | 15.0 | 0.00 | 0.05 | 0.00 | 83 | 1010.6 |
| 20260507014806 | 73 | 304 | 5.0 | 15.0 | 0.00 | 0.05 | 0.00 | 83 | 1010.7 |
| 20260507014718 | 73 | 304 | 6.0 | 15.0 | 0.00 | 0.05 | 0.00 | 83 | 1010.7 |
| 20260507014706 | 73 | 304 | 6.0 | 15.0 | 0.00 | 0.05 | 0.00 | 83 | 1010.9 |
| 20260507014404 | 74 | 311 | 5.0 | 14.0 | 0.00 | 0.05 | 0.00 | 83 | 1010.8 |
| 20260507014306 | 73 | 313 | 5.0 | 14.0 | 0.00 | 0.05 | 0.00 | 83 | 1010.8 |
| 20260507014204 | 74 | 314 | 5.0 | 14.0 | 0.00 | 0.05 | 0.00 | 83 | 1010.9 |
| 20260507014104 | 74 | 313 | 5.0 | 14.0 | 0.00 | 0.05 | 0.00 | 83 | 1010.9 |
| 20260507014006 | 74 | 316 | 4.0 | 14.0 | 0.00 | 0.05 | 0.00 | 83 | 1011.1 |
| 20260507013906 | 74 | 317 | 4.0 | 14.0 | 0.00 | 0.05 | 0.00 | 84 | 1011.0 |
| 20260507013806 | 73 | 322 | 4.0 | 14.0 | 0.00 | 0.05 | 0.00 | 83 | 1010.9 |
| 20260507013706 | 73 | 323 | 4.0 | 14.0 | 0.00 | 0.05 | 0.00 | 84 | 1011.2 |
| 20260507013606 | 73 | 327 | 4.0 | 10.0 | 0.00 | 0.05 | 0.00 | 83 | 1011.0 |
| 20260507013506 | 74 | 323 | 4.0 | 9.0 | 0.00 | 0.05 | 0.00 | 84 | 1011.0 |
| 20260507013406 | 74 | 326 | 4.0 | 9.0 | 0.00 | 0.05 | 0.00 | 83 | 1010.9 |
| 20260507013305 | 74 | 323 | 4.0 | 9.0 | 0.00 | 0.05 | 0.00 | 84 | 1011.0 |
| 20260507013205 | 74 | 321 | 4.0 | 9.0 | 0.00 | 0.05 | 0.00 | 83 | 1010.9 |
| 20260507013104 | 74 | 320 | 4.0 | 9.0 | 0.00 | 0.05 | 0.00 | 84 | 1011.1 |
| 20260507013020 | 74 | 319 | 4.0 | 11.0 | 0.00 | 0.05 | 0.00 | 84 | 1011.1 |
| 20260507013005 | 74 | 319 | 4.0 | 11.0 | 0.00 | 0.05 | 0.00 | 84 | 1011.0 |
| 20260507012906 | 74 | 318 | 4.0 | 11.0 | 0.00 | 0.05 | 0.00 | 84 | 1010.9 |
| 20260507012705 | 74 | 315 | 4.0 | 13.0 | 0.00 | 0.05 | 0.00 | 84 | 1011.1 |
| 20260507012620 | 74 | 313 | 5.0 | 13.0 | 0.00 | 0.05 | 0.00 | 84 | 1011.1 |
| 20260507012606 | 74 | 315 | 5.0 | 13.0 | 0.00 | 0.05 | 0.00 | 85 | 1011.0 |
| 20260507012506 | 74 | 315 | 4.0 | 13.0 | 0.00 | 0.05 | 0.00 | 85 | 1011.0 |
| 20260507012307 | 74 | 316 | 4.0 | 13.0 | 0.00 | 0.05 | 0.00 | 85 | 1011.0 |
| 20260507012205 | 74 | 319 | 4.0 | 13.0 | 0.00 | 0.05 | 0.00 | 85 | 1010.8 |
| 20260507012119 | 74 | 315 | 4.0 | 13.0 | 0.00 | 0.05 | 0.00 | 85 | 1010.8 |
| 20260507012105 | 74 | 315 | 4.0 | 13.0 | 0.00 | 0.05 | 0.00 | 85 | 1011.3 |
| 20260507012020 | 74 | 312 | 4.0 | 13.0 | 0.00 | 0.05 | 0.00 | 85 | 1011.3 |
| 20260507012005 | 74 | 311 | 4.0 | 13.0 | 0.00 | 0.05 | 0.00 | 85 | 1011.2 |
| 20260507011705 | 74 | 308 | 3.0 | 10.0 | 0.00 | 0.05 | 0.00 | 86 | 1011.2 |
| 20260507011604 | 74 | 313 | 3.0 | 10.0 | 0.00 | 0.05 | 0.00 | 86 | 1011.2 |
| 20260507011505 | 74 | 310 | 3.0 | 10.0 | 0.00 | 0.05 | 0.00 | 86 | 1011.2 |
| 20260507011405 | 74 | 313 | 3.0 | 10.0 | 0.00 | 0.05 | 0.00 | 86 | 1011.2 |
| 20260507011305 | 74 | 311 | 3.0 | 10.0 | 0.00 | 0.05 | 0.00 | 86 | 1011.3 |
| 20260507011205 | 74 | 312 | 4.0 | 10.0 | 0.00 | 0.05 | 0.00 | 86 | 1011.4 |
| 20260507011106 | 74 | 315 | 4.0 | 10.0 | 0.00 | 0.05 | 0.00 | 86 | 1011.5 |
| 20260507011005 | 74 | 321 | 4.0 | 10.0 | 0.00 | 0.05 | 0.00 | 86 | 1011.3 |
| 20260507010904 | 74 | 319 | 4.0 | 10.0 | 0.00 | 0.05 | 0.00 | 86 | 1011.3 |
| 20260507010804 | 74 | 321 | 4.0 | 10.0 | 0.00 | 0.05 | 0.00 | 85 | 1011.6 |
| 20260507010706 | 74 | 317 | 4.0 | 10.0 | 0.00 | 0.05 | 0.00 | 85 | 1011.6 |
| 20260507010605 | 74 | 315 | 4.0 | 10.0 | 0.00 | 0.05 | 0.00 | 86 | 1011.4 |
| 20260507010506 | 74 | 314 | 4.0 | 10.0 | 0.00 | 0.05 | 0.00 | 87 | 1011.8 |
| 20260507010404 | 74 | 309 | 4.0 | 10.0 | 0.00 | 0.05 | 0.00 | 86 | 1011.5 |
| 20260507010305 | 74 | 302 | 4.0 | 10.0 | 0.00 | 0.05 | 0.00 | 86 | 1011.5 |
| 20260507010205 | 74 | 298 | 4.0 | 10.0 | 0.00 | 0.05 | 0.00 | 86 | 1011.5 |
| 20260507010119 | 74 | 294 | 4.0 | 10.0 | 0.00 | 0.05 | 0.00 | 86 | 1011.5 |
| 20260507010104 | 74 | 293 | 4.0 | 10.0 | 0.00 | 0.05 | 0.00 | 86 | 1011.5 |
| 20260507010005 | 74 | 289 | 4.0 | 10.0 | 0.00 | 0.05 | 0.00 | 87 | 1011.3 |
| 20260507005804 | 74 | 286 | 4.0 | 10.0 | 0.00 | 0.05 | 0.00 | 87 | 1011.4 |
| 20260507005705 | 74 | 289 | 4.0 | 10.0 | 0.00 | 0.05 | 0.00 | 87 | 1011.4 |
| 20260507005604 | 74 | 289 | 4.0 | 10.0 | 0.00 | 0.05 | 0.00 | 87 | 1011.6 |
| 20260507005505 | 74 | 293 | 4.0 | 10.0 | 0.00 | 0.05 | 0.00 | 87 | 1011.8 |
| 20260507005405 | 74 | 292 | 3.0 | 10.0 | 0.00 | 0.05 | 0.00 | 88 | 1011.5 |
| 20260507005306 | 74 | 303 | 3.0 | 8.0 | 0.00 | 0.05 | 0.00 | 88 | 1011.4 |
| 20260507005206 | 74 | 309 | 3.0 | 8.0 | 0.00 | 0.05 | 0.00 | 88 | 1011.6 |
| 20260507005105 | 74 | 317 | 2.0 | 8.0 | 0.00 | 0.05 | 0.00 | 88 | 1011.5 |
| 20260507005006 | 73 | 320 | 2.0 | 8.0 | 0.00 | 0.05 | 0.00 | 89 | 1011.8 |
| 20260507004905 | 73 | 324 | 2.0 | 8.0 | 0.00 | 0.05 | 0.00 | 89 | 1011.8 |
| 20260507004806 | 73 | 328 | 2.0 | 8.0 | 0.00 | 0.05 | 0.00 | 88 | 1011.5 |
| 20260507004705 | 73 | 326 | 2.0 | 6.0 | 0.00 | 0.05 | 0.00 | 89 | 1011.6 |
| 20260507004606 | 73 | 320 | 2.0 | 6.0 | 0.00 | 0.05 | 0.00 | 89 | 1011.6 |
| 20260507004505 | 73 | 317 | 2.0 | 6.0 | 0.00 | 0.05 | 0.00 | 89 | 1011.9 |
| 20260507004404 | 73 | 318 | 2.0 | 6.0 | 0.00 | 0.05 | 0.00 | 89 | 1011.9 |
| 20260507004306 | 73 | 313 | 2.0 | 6.0 | 0.00 | 0.05 | 0.00 | 89 | 1011.9 |
| 20260507004206 | 73 | 311 | 2.0 | 6.0 | 0.00 | 0.05 | 0.00 | 89 | 1011.6 |
| 20260507004119 | 72 | 312 | 2.0 | 6.0 | 0.00 | 0.05 | 0.00 | 89 | 1011.6 |
| 20260507004106 | 72 | 311 | 2.0 | 6.0 | 0.00 | 0.05 | 0.00 | 89 | 1011.8 |
| 20260507004005 | 72 | 311 | 2.0 | 6.0 | 0.00 | 0.05 | 0.00 | 89 | 1011.9 |
| 20260507003806 | 72 | 304 | 2.0 | 6.0 | 0.00 | 0.05 | 0.00 | 89 | 1011.8 |
| 20260507003704 | 72 | 304 | 2.0 | 6.0 | 0.00 | 0.05 | 0.00 | 89 | 1012.0 |
| 20260507003606 | 72 | 305 | 2.0 | 6.0 | 0.00 | 0.05 | 0.00 | 89 | 1011.9 |
| 20260507003506 | 72 | 302 | 3.0 | 7.0 | 0.00 | 0.05 | 0.00 | 89 | 1011.9 |
| 20260507003419 | 72 | 300 | 3.0 | 7.0 | 0.00 | 0.05 | 0.00 | 89 | 1011.9 |
| 20260507003406 | 72 | 301 | 3.0 | 7.0 | 0.00 | 0.05 | 0.00 | 89 | 1012.2 |
| 20260507003305 | 72 | 302 | 3.0 | 7.0 | 0.00 | 0.05 | 0.00 | 89 | 1012.1 |
| 20260507003120 | 72 | 293 | 3.0 | 7.0 | 0.00 | 0.05 | 0.00 | 89 | 1012.1 |
| 20260507003104 | 72 | 294 | 3.0 | 7.0 | 0.00 | 0.05 | 0.00 | 89 | 1012.0 |
| 20260507003022 | 72 | 293 | 3.0 | 7.0 | 0.00 | 0.05 | 0.00 | 89 | 1012.0 |
| 20260507003004 | 72 | 293 | 3.0 | 7.0 | 0.00 | 0.05 | 0.00 | 89 | 1012.1 |
| 20260507002821 | 72 | 295 | 3.0 | 7.0 | 0.00 | 0.05 | 0.00 | 89 | 1012.2 |
| 20260507002706 | 72 | 297 | 3.0 | 7.0 | 0.00 | 0.05 | 0.00 | 89 | 1012.4 |
| 20260507002506 | 72 | 303 | 3.0 | 7.0 | 0.00 | 0.05 | 0.00 | 89 | 1012.3 |
| 20260507002421 | 72 | 300 | 3.0 | 7.0 | 0.00 | 0.05 | 0.00 | 89 | 1012.3 |
| 20260507002404 | 72 | 300 | 3.0 | 7.0 | 0.00 | 0.05 | 0.00 | 89 | 1012.6 |
| 20260507002306 | 72 | 300 | 3.0 | 7.0 | 0.00 | 0.05 | 0.00 | 89 | 1012.4 |
| 20260507002106 | 72 | 307 | 3.0 | 7.0 | 0.00 | 0.05 | 0.00 | 90 | 1012.5 |
| 20260507002006 | 72 | 309 | 3.0 | 7.0 | 0.00 | 0.05 | 0.00 | 90 | 1012.5 |
| 20260507001905 | 72 | 313 | 2.0 | 7.0 | 0.00 | 0.05 | 0.00 | 89 | 1012.5 |
| 20260507001804 | 72 | 314 | 2.0 | 7.0 | 0.00 | 0.05 | 0.00 | 89 | 1012.5 |
| 20260507001704 | 72 | 319 | 2.0 | 7.0 | 0.00 | 0.05 | 0.00 | 90 | 1012.7 |
| 20260507001605 | 72 | 323 | 2.0 | 7.0 | 0.00 | 0.05 | 0.00 | 90 | 1012.6 |
| 20260507001506 | 72 | 327 | 2.0 | 7.0 | 0.00 | 0.05 | 0.00 | 90 | 1012.4 |
| 20260507001405 | 72 | 336 | 2.0 | 7.0 | 0.00 | 0.05 | 0.00 | 90 | 1012.5 |
| 20260507001305 | 72 | 339 | 2.0 | 4.0 | 0.00 | 0.05 | 0.00 | 90 | 1012.6 |
| 20260507001205 | 72 | 338 | 1.0 | 4.0 | 0.00 | 0.05 | 0.00 | 90 | 1012.6 |
| 20260507001104 | 72 | 333 | 1.0 | 3.0 | 0.00 | 0.05 | 0.00 | 90 | 1012.7 |
| 20260507001022 | 72 | 326 | 1.0 | 3.0 | 0.00 | 0.05 | 0.00 | 90 | 1012.7 |
| 20260507001004 | 72 | 324 | 1.0 | 3.0 | 0.00 | 0.05 | 0.00 | 90 | 1012.7 |
| 20260507000905 | 72 | 319 | 1.0 | 3.0 | 0.00 | 0.05 | 0.00 | 90 | 1012.5 |
| 20260507000719 | 72 | 315 | 1.0 | 3.0 | 0.00 | 0.05 | 0.00 | 90 | 1012.5 |
| 20260507000706 | 72 | 314 | 1.0 | 3.0 | 0.00 | 0.05 | 0.00 | 90 | 1012.5 |
| 20260507000606 | 72 | 309 | 1.0 | 3.0 | 0.00 | 0.05 | 0.00 | 90 | 1012.7 |
| 20260507000406 | 71 | 313 | 1.0 | 3.0 | 0.00 | 0.05 | 0.00 | 90 | 1012.6 |
| 20260507000306 | 71 | 318 | 1.0 | 3.0 | 0.00 | 0.05 | 0.00 | 91 | 1012.6 |
| 20260507000205 | 71 | 317 | 1.0 | 3.0 | 0.00 | 0.05 | 0.00 | 90 | 1012.8 |
| 20260507000106 | 71 | 317 | 1.0 | 3.0 | 0.00 | 0.05 | 0.00 | 90 | 1012.6 |
| 20260507000006 | 71 | 323 | 1.0 | 3.0 | 0.00 | 0.05 | 0.00 | 91 | 1012.6 |
| 20260506235905 | 71 | 339 | 1.0 | 3.0 | 0.00 | 0.05 | 0.00 | 91 | 1012.7 |
| 20260506235806 | 71 | 331 | 1.0 | 3.0 | 0.00 | 0.05 | 0.00 | 91 | 1012.6 |
| 20260506235706 | 71 | 318 | 1.0 | 3.0 | 0.00 | 0.05 | 0.00 | 91 | 1012.6 |
| 20260506235606 | 71 | 308 | 1.0 | 3.0 | 0.00 | 0.05 | 0.00 | 91 | 1012.6 |
| 20260506235519 | 71 | 300 | 1.0 | 3.0 | 0.00 | 0.05 | 0.00 | 91 | 1012.6 |
| 20260506235505 | 71 | 299 | 1.0 | 3.0 | 0.00 | 0.05 | 0.00 | 91 | 1012.7 |
| 20260506235407 | 71 | 293 | 1.0 | 7.0 | 0.00 | 0.05 | 0.00 | 91 | 1012.7 |
| 20260506235320 | 71 | 281 | 1.0 | 7.0 | 0.00 | 0.05 | 0.00 | 91 | 1012.7 |
| 20260506235220 | 71 | 280 | 2.0 | 7.0 | 0.00 | 0.05 | 0.00 | 91 | 1012.6 |
| 20260506235206 | 71 | 281 | 2.0 | 7.0 | 0.00 | 0.05 | 0.00 | 91 | 1012.9 |
| 20260506234905 | 71 | 277 | 1.0 | 7.0 | 0.00 | 0.05 | 0.00 | 91 | 1012.6 |
| 20260506234805 | 71 | 279 | 1.0 | 7.0 | 0.00 | 0.05 | 0.00 | 91 | 1012.8 |
| 20260506234705 | 71 | 280 | 1.0 | 7.0 | 0.00 | 0.05 | 0.00 | 91 | 1013.1 |
| 20260506234620 | 71 | 278 | 1.0 | 7.0 | 0.00 | 0.05 | 0.00 | 91 | 1013.1 |
| 20260506234604 | 71 | 277 | 1.0 | 7.0 | 0.00 | 0.05 | 0.00 | 91 | 1013.1 |
| 20260506234506 | 71 | 276 | 1.0 | 7.0 | 0.00 | 0.05 | 0.00 | 91 | 1012.7 |
| 20260506234305 | 70 | 293 | 2.0 | 10.0 | 0.00 | 0.05 | 0.00 | 91 | 1012.9 |
| 20260506234204 | 70 | 300 | 2.0 | 10.0 | 0.00 | 0.05 | 0.00 | 91 | 1012.9 |
| 20260506234104 | 70 | 307 | 2.0 | 10.0 | 0.00 | 0.05 | 0.00 | 91 | 1012.8 |
| 20260506234021 | 70 | 310 | 2.0 | 10.0 | 0.00 | 0.05 | 0.00 | 91 | 1012.8 |
| 20260506234004 | 70 | 311 | 2.0 | 10.0 | 0.00 | 0.05 | 0.00 | 91 | 1012.9 |
| 20260506233906 | 70 | 308 | 2.0 | 10.0 | 0.00 | 0.05 | 0.00 | 91 | 1012.7 |
| 20260506233706 | 70 | 299 | 3.0 | 10.0 | 0.00 | 0.05 | 0.00 | 91 | 1013.0 |
| 20260506233620 | 70 | 295 | 3.0 | 10.0 | 0.00 | 0.05 | 0.00 | 91 | 1013.0 |
| 20260506233605 | 70 | 296 | 3.0 | 10.0 | 0.00 | 0.05 | 0.00 | 91 | 1013.0 |
| 20260506233504 | 70 | 299 | 3.0 | 10.0 | 0.00 | 0.05 | 0.00 | 91 | 1013.0 |
| 20260506233306 | 70 | 302 | 2.0 | 7.0 | 0.00 | 0.05 | 0.00 | 91 | 1012.9 |
| 20260506233206 | 70 | 296 | 2.0 | 8.0 | 0.00 | 0.05 | 0.00 | 91 | 1012.8 |
| 20260506233106 | 70 | 290 | 2.0 | 8.0 | 0.00 | 0.05 | 0.00 | 91 | 1012.8 |
| 20260506233005 | 70 | 287 | 2.0 | 8.0 | 0.00 | 0.05 | 0.00 | 91 | 1012.9 |
| 20260506232906 | 70 | 295 | 2.0 | 8.0 | 0.00 | 0.05 | 0.00 | 92 | 1013.0 |
| 20260506232806 | 70 | 303 | 2.0 | 8.0 | 0.00 | 0.05 | 0.00 | 92 | 1013.1 |
| 20260506232707 | 69 | 310 | 2.0 | 8.0 | 0.00 | 0.05 | 0.00 | 92 | 1013.1 |
| 20260506232606 | 69 | 322 | 2.0 | 8.0 | 0.00 | 0.05 | 0.00 | 92 | 1013.0 |
| 20260506232506 | 69 | 328 | 2.0 | 8.0 | 0.00 | 0.05 | 0.00 | 92 | 1013.3 |
| 20260506232406 | 69 | 333 | 1.0 | 8.0 | 0.00 | 0.05 | 0.00 | 92 | 1013.2 |
| 20260506232321 | 69 | 339 | 1.0 | 8.0 | 0.00 | 0.05 | 0.00 | 92 | 1013.2 |
| 20260506232307 | 69 | 341 | 1.0 | 8.0 | 0.00 | 0.05 | 0.00 | 92 | 1013.1 |
| 20260506232206 | 69 | 24 | 1.0 | 4.0 | 0.00 | 0.05 | 0.00 | 92 | 1013.0 |
| 20260506232006 | 69 | 67 | 1.0 | 4.0 | 0.00 | 0.05 | 0.00 | 92 | 1013.0 |
| 20260506231906 | 69 | 66 | 1.0 | 6.0 | 0.00 | 0.05 | 0.00 | 92 | 1013.0 |
| 20260506231805 | 69 | 45 | 1.0 | 6.0 | 0.00 | 0.05 | 0.00 | 92 | 1012.9 |
| 20260506231704 | 69 | 351 | 2.0 | 8.0 | 0.00 | 0.05 | 0.00 | 92 | 1013.0 |
| 20260506231605 | 69 | 328 | 2.0 | 8.0 | 0.00 | 0.05 | 0.00 | 92 | 1013.0 |
| 20260506231505 | 69 | 315 | 2.0 | 8.0 | 0.00 | 0.05 | 0.00 | 92 | 1013.1 |
| 20260506231405 | 69 | 314 | 2.0 | 8.0 | 0.00 | 0.05 | 0.00 | 92 | 1013.0 |
| 20260506231306 | 69 | 306 | 3.0 | 8.0 | 0.00 | 0.05 | 0.00 | 92 | 1012.9 |
| 20260506231205 | 69 | 300 | 3.0 | 8.0 | 0.00 | 0.05 | 0.00 | 92 | 1012.9 |
| 20260506231120 | 69 | 298 | 3.0 | 8.0 | 0.00 | 0.05 | 0.00 | 92 | 1012.9 |
| 20260506231104 | 69 | 297 | 3.0 | 8.0 | 0.00 | 0.05 | 0.00 | 92 | 1013.1 |
| 20260506231005 | 69 | 293 | 3.0 | 8.0 | 0.00 | 0.05 | 0.00 | 92 | 1013.0 |
| 20260506230805 | 69 | 293 | 3.0 | 8.0 | 0.00 | 0.05 | 0.00 | 92 | 1012.9 |
| 20260506230705 | 69 | 293 | 3.0 | 8.0 | 0.00 | 0.05 | 0.00 | 92 | 1013.1 |
| 20260506230604 | 69 | 297 | 3.0 | 7.0 | 0.00 | 0.05 | 0.00 | 93 | 1013.1 |
| 20260506230520 | 68 | 300 | 2.0 | 7.0 | 0.00 | 0.05 | 0.00 | 93 | 1013.1 |
| 20260506230504 | 68 | 302 | 2.0 | 7.0 | 0.00 | 0.05 | 0.00 | 93 | 1012.9 |
| 20260506230404 | 68 | 304 | 2.0 | 7.0 | 0.00 | 0.05 | 0.00 | 93 | 1012.9 |
| 20260506230205 | 68 | 311 | 3.0 | 7.0 | 0.00 | 0.05 | 0.00 | 93 | 1013.1 |
| 20260506230104 | 68 | 315 | 3.0 | 7.0 | 0.00 | 0.05 | 0.00 | 93 | 1013.1 |
| 20260506230006 | 68 | 317 | 3.0 | 7.0 | 0.00 | 0.05 | 0.00 | 93 | 1013.1 |
| 20260506225904 | 68 | 318 | 3.0 | 7.0 | 0.00 | 0.05 | 0.05 | 93 | 1013.1 |
| 20260506225804 | 68 | 311 | 2.0 | 6.0 | 0.00 | 0.05 | 0.05 | 93 | 1013.1 |
| 20260506225705 | 68 | 314 | 2.0 | 6.0 | 0.00 | 0.05 | 0.05 | 93 | 1013.0 |
| 20260506225604 | 68 | 311 | 2.0 | 6.0 | 0.00 | 0.05 | 0.05 | 93 | 1012.7 |
| 20260506225505 | 68 | 302 | 2.0 | 6.0 | 0.00 | 0.05 | 0.05 | 93 | 1012.9 |
| 20260506225404 | 68 | 297 | 2.0 | 6.0 | 0.00 | 0.05 | 0.05 | 93 | 1013.0 |
| 20260506225321 | 68 | 297 | 2.0 | 6.0 | 0.00 | 0.05 | 0.05 | 93 | 1013.0 |
| 20260506225306 | 68 | 296 | 2.0 | 6.0 | 0.00 | 0.05 | 0.05 | 93 | 1012.9 |
| 20260506225206 | 67 | 301 | 2.0 | 6.0 | 0.00 | 0.05 | 0.05 | 93 | 1013.1 |
| 20260506225005 | 67 | 286 | 2.0 | 6.0 | 0.00 | 0.05 | 0.05 | 93 | 1013.0 |
| 20260506224904 | 67 | 282 | 2.0 | 6.0 | 0.00 | 0.05 | 0.05 | 94 | 1013.0 |
| 20260506224804 | 67 | 281 | 1.0 | 6.0 | 0.00 | 0.05 | 0.05 | 94 | 1013.2 |
| 20260506224604 | 67 | 283 | 2.0 | 6.0 | 0.00 | 0.05 | 0.05 | 94 | 1013.0 |
| 20260506224505 | 67 | 296 | 1.0 | 4.0 | 0.00 | 0.05 | 0.05 | 94 | 1013.1 |
| 20260506224405 | 67 | 306 | 1.0 | 4.0 | 0.00 | 0.05 | 0.05 | 94 | 1013.1 |
| 20260506224319 | 67 | 304 | 1.0 | 4.0 | 0.00 | 0.05 | 0.05 | 94 | 1013.1 |
| 20260506224304 | 67 | 302 | 1.0 | 4.0 | 0.00 | 0.05 | 0.05 | 94 | 1013.1 |
| 20260506224205 | 67 | 300 | 1.0 | 4.0 | 0.00 | 0.05 | 0.05 | 94 | 1013.0 |
| 20260506224005 | 67 | 300 | 2.0 | 4.0 | 0.00 | 0.05 | 0.05 | 94 | 1013.2 |
| 20260506223905 | 66 | 296 | 2.0 | 4.0 | 0.00 | 0.05 | 0.05 | 94 | 1013.1 |
| 20260506223804 | 66 | 293 | 2.0 | 4.0 | 0.00 | 0.05 | 0.05 | 94 | 1013.0 |
| 20260506223705 | 66 | 290 | 2.0 | 4.0 | 0.00 | 0.05 | 0.05 | 94 | 1012.9 |
| 20260506223604 | 66 | 290 | 2.0 | 4.0 | 0.00 | 0.05 | 0.05 | 94 | 1013.0 |
| 20260506223504 | 66 | 289 | 2.0 | 4.0 | 0.00 | 0.05 | 0.05 | 94 | 1013.0 |
| 20260506223405 | 66 | 284 | 2.0 | 4.0 | 0.00 | 0.05 | 0.05 | 94 | 1013.2 |
| 20260506223304 | 66 | 278 | 1.0 | 4.0 | 0.00 | 0.05 | 0.05 | 94 | 1013.3 |
| 20260506223204 | 66 | 272 | 1.0 | 4.0 | 0.00 | 0.05 | 0.05 | 94 | 1013.0 |
| 20260506223104 | 65 | 269 | 1.0 | 4.0 | 0.00 | 0.05 | 0.05 | 94 | 1013.2 |
| 20260506223006 | 65 | 268 | 1.0 | 4.0 | 0.00 | 0.05 | 0.05 | 94 | 1013.2 |
| 20260506222904 | 65 | 270 | 1.0 | 4.0 | 0.00 | 0.05 | 0.05 | 94 | 1013.1 |
| 20260506222805 | 65 | 277 | 1.0 | 4.0 | 0.00 | 0.05 | 0.05 | 94 | 1013.1 |
| 20260506222704 | 65 | 293 | 0.0 | 2.0 | 0.00 | 0.05 | 0.05 | 94 | 1013.1 |
| 20260506222604 | 65 | 293 | 0.0 | 2.0 | 0.00 | 0.05 | 0.05 | 94 | 1013.1 |
| 20260506222520 | 65 | 293 | 0.0 | 2.0 | 0.00 | 0.05 | 0.05 | 94 | 1013.1 |
| 20260506222504 | 65 | 293 | 0.0 | 2.0 | 0.00 | 0.05 | 0.05 | 94 | 1013.0 |
| 20260506222420 | 65 | 293 | 0.0 | 2.0 | 0.00 | 0.05 | 0.05 | 94 | 1013.0 |
| 20260506222404 | 65 | 293 | 0.0 | 2.0 | 0.00 | 0.05 | 0.05 | 94 | 1013.1 |
| 20260506222107 | 65 | 293 | 0.0 | 1.0 | 0.00 | 0.05 | 0.05 | 94 | 1013.0 |
| 20260506222005 | 65 | 293 | 0.0 | 1.0 | 0.00 | 0.05 | 0.05 | 94 | 1013.2 |
| 20260506221906 | 64 | 293 | 0.0 | 1.0 | 0.00 | 0.05 | 0.05 | 94 | 1013.0 |
| 20260506221804 | 64 | 293 | 1.0 | 1.0 | 0.00 | 0.05 | 0.05 | 94 | 1013.2 |
| 20260506221706 | 64 | 293 | 1.0 | 1.0 | 0.00 | 0.05 | 0.05 | 94 | 1013.1 |
| 20260506221606 | 64 | 293 | 1.0 | 1.0 | 0.00 | 0.05 | 0.05 | 94 | 1013.1 |
| 20260506221505 | 64 | 293 | 0.0 | 1.0 | 0.00 | 0.05 | 0.05 | 94 | 1013.1 |
| 20260506221405 | 64 | 293 | 0.0 | 1.0 | 0.00 | 0.05 | 0.05 | 94 | 1013.0 |
| 20260506221321 | 64 | 293 | 0.0 | 1.0 | 0.00 | 0.05 | 0.05 | 94 | 1013.0 |
| 20260506221305 | 64 | 293 | 0.0 | 1.0 | 0.00 | 0.05 | 0.05 | 94 | 1013.1 |
| 20260506221206 | 64 | 293 | 0.0 | 2.0 | 0.00 | 0.05 | 0.05 | 94 | 1013.1 |
| 20260506221005 | 64 | 293 | 0.0 | 2.0 | 0.00 | 0.05 | 0.05 | 94 | 1013.0 |
| 20260506220919 | 64 | 293 | 0.0 | 2.0 | 0.00 | 0.05 | 0.05 | 94 | 1013.0 |
| 20260506220905 | 64 | 293 | 0.0 | 2.0 | 0.00 | 0.05 | 0.05 | 94 | 1013.1 |
| 20260506220805 | 64 | 293 | 0.0 | 2.0 | 0.00 | 0.05 | 0.05 | 94 | 1013.2 |
| 20260506220604 | 64 | 293 | 0.0 | 2.0 | 0.00 | 0.05 | 0.05 | 94 | 1013.2 |
| 20260506220505 | 64 | 302 | 1.0 | 2.0 | 0.00 | 0.05 | 0.05 | 94 | 1013.3 |
| 20260506220404 | 64 | 312 | 1.0 | 2.0 | 0.00 | 0.05 | 0.05 | 94 | 1013.2 |
| 20260506220306 | 64 | 314 | 1.0 | 2.0 | 0.00 | 0.05 | 0.05 | 94 | 1012.9 |
| 20260506220206 | 64 | 323 | 1.0 | 4.0 | 0.00 | 0.05 | 0.05 | 94 | 1012.9 |
| 20260506220120 | 64 | 321 | 1.0 | 4.0 | 0.00 | 0.05 | 0.05 | 94 | 1013.1 |
| 20260506220106 | 64 | 320 | 1.0 | 4.0 | 0.00 | 0.05 | 0.05 | 94 | 1013.1 |
| 20260506220006 | 64 | 320 | 1.0 | 4.0 | 0.00 | 0.05 | 0.05 | 94 | 1013.0 |
| 20260506215805 | 63 | 321 | 2.0 | 4.0 | 0.00 | 0.05 | 0.05 | 94 | 1013.0 |
| 20260506215705 | 63 | 321 | 2.0 | 4.0 | 0.00 | 0.05 | 0.05 | 94 | 1012.8 |
| 20260506215604 | 63 | 323 | 2.0 | 4.0 | 0.00 | 0.05 | 0.05 | 94 | 1013.1 |
| 20260506215504 | 63 | 323 | 2.0 | 4.0 | 0.00 | 0.05 | 0.05 | 94 | 1012.9 |
| 20260506215404 | 63 | 321 | 2.0 | 4.0 | 0.00 | 0.05 | 0.05 | 94 | 1012.9 |
| 20260506215319 | 63 | 319 | 2.0 | 4.0 | 0.00 | 0.05 | 0.05 | 94 | 1012.9 |
| 20260506215306 | 63 | 320 | 2.0 | 4.0 | 0.00 | 0.05 | 0.05 | 94 | 1013.0 |
| 20260506215221 | 63 | 316 | 2.0 | 4.0 | 0.00 | 0.05 | 0.05 | 94 | 1013.0 |
| 20260506215205 | 63 | 315 | 2.0 | 4.0 | 0.00 | 0.05 | 0.05 | 94 | 1013.1 |
| 20260506214904 | 63 | 318 | 2.0 | 4.0 | 0.00 | 0.05 | 0.05 | 94 | 1013.1 |
| 20260506214806 | 63 | 318 | 2.0 | 4.0 | 0.00 | 0.05 | 0.05 | 94 | 1013.1 |
| 20260506214619 | 63 | 319 | 1.0 | 4.0 | 0.00 | 0.05 | 0.05 | 94 | 1012.9 |
| 20260506214606 | 63 | 318 | 1.0 | 4.0 | 0.00 | 0.05 | 0.05 | 94 | 1013.0 |
| 20260506214506 | 63 | 318 | 1.0 | 4.0 | 0.00 | 0.05 | 0.05 | 94 | 1013.0 |
| 20260506214304 | 63 | 321 | 1.0 | 4.0 | 0.00 | 0.05 | 0.05 | 94 | 1012.9 |
| 20260506214219 | 63 | 323 | 1.0 | 4.0 | 0.00 | 0.05 | 0.05 | 94 | 1012.9 |
| 20260506214204 | 63 | 326 | 1.0 | 4.0 | 0.00 | 0.05 | 0.05 | 94 | 1012.9 |
| 20260506214105 | 63 | 330 | 1.0 | 3.0 | 0.00 | 0.05 | 0.05 | 94 | 1012.9 |
| 20260506214020 | 63 | 331 | 1.0 | 3.0 | 0.00 | 0.05 | 0.05 | 94 | 1012.9 |
| 20260506213905 | 62 | 333 | 1.0 | 3.0 | 0.00 | 0.05 | 0.05 | 94 | 1012.9 |
| 20260506213704 | 63 | 337 | 1.0 | 3.0 | 0.00 | 0.05 | 0.05 | 94 | 1012.9 |
| 20260506213604 | 62 | 339 | 1.0 | 3.0 | 0.00 | 0.05 | 0.05 | 94 | 1012.8 |
| 20260506213519 | 62 | 339 | 0.0 | 3.0 | 0.00 | 0.05 | 0.05 | 94 | 1012.8 |
| 20260506213505 | 62 | 339 | 0.0 | 3.0 | 0.00 | 0.05 | 0.05 | 94 | 1012.9 |
| 20260506213404 | 62 | 339 | 0.0 | 3.0 | 0.00 | 0.05 | 0.05 | 94 | 1012.8 |
| 20260506213205 | 62 | 340 | 0.0 | 2.0 | 0.00 | 0.05 | 0.05 | 94 | 1012.8 |
| 20260506213105 | 62 | 341 | 0.0 | 1.0 | 0.00 | 0.05 | 0.05 | 94 | 1013.1 |
| 20260506213004 | 62 | 341 | 0.0 | 1.0 | 0.00 | 0.05 | 0.05 | 94 | 1012.8 |
| 20260506212905 | 62 | 341 | 0.0 | 2.0 | 0.00 | 0.05 | 0.05 | 94 | 1013.1 |
| 20260506212820 | 62 | 340 | 0.0 | 2.0 | 0.00 | 0.05 | 0.05 | 94 | 1013.1 |
| 20260506212805 | 62 | 338 | 0.0 | 2.0 | 0.00 | 0.05 | 0.05 | 94 | 1012.8 |
| 20260506212704 | 62 | 336 | 0.0 | 2.0 | 0.00 | 0.05 | 0.05 | 94 | 1013.0 |
| 20260506212506 | 62 | 325 | 1.0 | 2.0 | 0.00 | 0.05 | 0.05 | 94 | 1012.8 |
| 20260506212405 | 62 | 322 | 1.0 | 3.0 | 0.00 | 0.05 | 0.05 | 94 | 1012.8 |
| 20260506212307 | 62 | 320 | 1.0 | 4.0 | 0.00 | 0.05 | 0.05 | 94 | 1012.8 |
| 20260506212205 | 62 | 322 | 1.0 | 4.0 | 0.00 | 0.05 | 0.05 | 94 | 1013.0 |
| 20260506212105 | 62 | 321 | 1.0 | 4.0 | 0.00 | 0.05 | 0.05 | 94 | 1013.1 |
| 20260506212020 | 62 | 320 | 1.0 | 4.0 | 0.00 | 0.05 | 0.05 | 94 | 1013.1 |
| 20260506212005 | 62 | 320 | 1.0 | 4.0 | 0.00 | 0.05 | 0.05 | 94 | 1012.8 |
| 20260506211906 | 62 | 316 | 1.0 | 4.0 | 0.00 | 0.05 | 0.05 | 94 | 1012.8 |
| 20260506211718 | 62 | 314 | 1.0 | 4.0 | 0.00 | 0.05 | 0.05 | 94 | 1012.9 |
| 20260506211706 | 62 | 315 | 1.0 | 4.0 | 0.00 | 0.05 | 0.05 | 94 | 1012.8 |
| 20260506211605 | 62 | 316 | 1.0 | 4.0 | 0.00 | 0.05 | 0.05 | 94 | 1012.9 |
| 20260506211405 | 62 | 309 | 1.0 | 4.0 | 0.00 | 0.05 | 0.05 | 94 | 1012.8 |
| 20260506211321 | 62 | 310 | 1.0 | 4.0 | 0.00 | 0.05 | 0.05 | 94 | 1012.8 |
| 20260506211304 | 62 | 307 | 1.0 | 4.0 | 0.00 | 0.05 | 0.05 | 94 | 1012.8 |
| 20260506211204 | 62 | 296 | 1.0 | 3.0 | 0.00 | 0.05 | 0.05 | 94 | 1013.1 |
| 20260506211006 | 62 | 289 | 0.0 | 3.0 | 0.00 | 0.05 | 0.05 | 94 | 1012.9 |
| 20260506210906 | 62 | 277 | 0.0 | 3.0 | 0.00 | 0.05 | 0.05 | 93 | 1012.9 |
| 20260506210804 | 62 | 277 | 0.0 | 3.0 | 0.00 | 0.05 | 0.05 | 93 | 1012.9 |
| 20260506210706 | 62 | 277 | 0.0 | 3.0 | 0.00 | 0.05 | 0.05 | 93 | 1012.9 |
| 20260506210604 | 62 | 277 | 0.0 | 3.0 | 0.00 | 0.05 | 0.05 | 93 | 1012.7 |
| 20260506210506 | 62 | 278 | 0.0 | 3.0 | 0.00 | 0.05 | 0.05 | 93 | 1012.8 |
| 20260506210404 | 62 | 327 | 0.0 | 1.0 | 0.00 | 0.05 | 0.05 | 93 | 1012.7 |
| 20260506210306 | 62 | 0 | 0.0 | 0.0 | 0.00 | 0.05 | 0.05 | 93 | 1012.8 |
| 20260506210204 | 62 | 0 | 0.0 | 0.0 | 0.00 | 0.05 | 0.05 | 93 | 1012.7 |
| 20260506210105 | 62 | 327 | 0.0 | 2.0 | 0.00 | 0.05 | 0.05 | 93 | 1012.7 |
| 20260506210005 | 62 | 327 | 0.0 | 2.0 | 0.00 | 0.05 | 0.05 | 93 | 1012.8 |
| 20260506205906 | 62 | 326 | 0.0 | 2.0 | 0.00 | 0.05 | 0.05 | 93 | 1012.9 |
| 20260506205805 | 62 | 326 | 0.0 | 2.0 | 0.00 | 0.05 | 0.05 | 93 | 1012.8 |
| 20260506205705 | 62 | 326 | 0.0 | 2.0 | 0.00 | 0.05 | 0.05 | 93 | 1012.9 |
| 20260506205605 | 62 | 326 | 0.0 | 2.0 | 0.00 | 0.05 | 0.05 | 93 | 1012.9 |
| 20260506205505 | 62 | 326 | 0.0 | 2.0 | 0.00 | 0.05 | 0.05 | 93 | 1012.7 |
| 20260506205306 | 62 | 326 | 0.0 | 2.0 | 0.00 | 0.05 | 0.05 | 93 | 1012.8 |
| 20260506205205 | 62 | 326 | 0.0 | 2.0 | 0.00 | 0.05 | 0.05 | 93 | 1012.7 |
| 20260506205104 | 62 | 326 | 0.0 | 2.0 | 0.00 | 0.05 | 0.05 | 93 | 1012.8 |
| 20260506205005 | 61 | 326 | 0.0 | 1.0 | 0.00 | 0.05 | 0.05 | 93 | 1012.8 |
| 20260506204904 | 61 | 326 | 0.0 | 1.0 | 0.00 | 0.05 | 0.05 | 93 | 1012.6 |
| 20260506204806 | 61 | 326 | 0.0 | 1.0 | 0.00 | 0.05 | 0.05 | 93 | 1012.6 |
| 20260506204706 | 61 | 326 | 0.0 | 1.0 | 0.00 | 0.05 | 0.05 | 93 | 1012.5 |
| 20260506204504 | 61 | 0 | 0.0 | 0.0 | 0.00 | 0.05 | 0.05 | 93 | 1012.8 |
| 20260506204420 | 61 | 0 | 0.0 | 0.0 | 0.00 | 0.05 | 0.05 | 93 | 1012.8 |
| 20260506204406 | 61 | 0 | 0.0 | 0.0 | 0.00 | 0.05 | 0.05 | 93 | 1012.7 |
| 20260506204305 | 62 | 0 | 0.0 | 0.0 | 0.00 | 0.05 | 0.05 | 93 | 1012.6 |
| 20260506204105 | 62 | 0 | 0.0 | 0.0 | 0.00 | 0.05 | 0.05 | 93 | 1012.5 |
| 20260506204005 | 62 | 0 | 0.0 | 0.0 | 0.00 | 0.05 | 0.05 | 93 | 1012.8 |
| 20260506203906 | 62 | 0 | 0.0 | 0.0 | 0.00 | 0.05 | 0.05 | 93 | 1012.4 |
| 20260506203804 | 62 | 0 | 0.0 | 0.0 | 0.00 | 0.05 | 0.05 | 93 | 1012.5 |
| 20260506203705 | 62 | 0 | 0.0 | 0.0 | 0.00 | 0.05 | 0.05 | 93 | 1012.6 |
| 20260506203605 | 62 | 0 | 0.0 | 0.0 | 0.00 | 0.05 | 0.05 | 93 | 1012.5 |
| 20260506203506 | 62 | 0 | 0.0 | 0.0 | 0.00 | 0.05 | 0.05 | 93 | 1012.5 |
| 20260506203404 | 62 | 0 | 0.0 | 0.0 | 0.00 | 0.05 | 0.05 | 93 | 1012.3 |
| 20260506203305 | 62 | 0 | 0.0 | 0.0 | 0.00 | 0.05 | 0.05 | 93 | 1012.5 |
| 20260506203204 | 62 | 0 | 0.0 | 0.0 | 0.00 | 0.05 | 0.05 | 93 | 1012.4 |
| 20260506203106 | 62 | 0 | 0.0 | 0.0 | 0.00 | 0.05 | 0.05 | 93 | 1012.7 |
| 20260506203005 | 62 | 0 | 0.0 | 0.0 | 0.00 | 0.05 | 0.05 | 93 | 1012.7 |
| 20260506202904 | 62 | 0 | 0.0 | 0.0 | 0.00 | 0.05 | 0.05 | 93 | 1012.5 |
| 20260506202805 | 62 | 0 | 0.0 | 0.0 | 0.00 | 0.05 | 0.05 | 93 | 1012.4 |
| 20260506202704 | 62 | 0 | 0.0 | 0.0 | 0.00 | 0.05 | 0.05 | 93 | 1012.5 |
| 20260506202605 | 62 | 326 | 0.0 | 1.0 | 0.00 | 0.05 | 0.05 | 93 | 1012.4 |
| 20260506202505 | 62 | 326 | 0.0 | 1.0 | 0.00 | 0.05 | 0.05 | 93 | 1012.5 |
| 20260506202405 | 62 | 326 | 0.0 | 1.0 | 0.00 | 0.05 | 0.05 | 93 | 1012.4 |
| 20260506202320 | 62 | 326 | 0.0 | 1.0 | 0.00 | 0.05 | 0.05 | 93 | 1012.4 |
| 20260506202306 | 62 | 326 | 0.0 | 1.0 | 0.00 | 0.05 | 0.05 | 93 | 1012.6 |
| 20260506202221 | 62 | 326 | 0.0 | 1.0 | 0.00 | 0.05 | 0.05 | 93 | 1012.6 |
| 20260506202205 | 62 | 326 | 0.0 | 1.0 | 0.00 | 0.05 | 0.05 | 93 | 1012.4 |
| 20260506201905 | 62 | 326 | 0.0 | 1.0 | 0.00 | 0.05 | 0.05 | 93 | 1012.3 |
| 20260506201805 | 62 | 326 | 0.0 | 1.0 | 0.00 | 0.05 | 0.05 | 93 | 1012.6 |
| 20260506201705 | 62 | 326 | 0.0 | 1.0 | 0.00 | 0.05 | 0.05 | 93 | 1012.4 |
| 20260506201605 | 62 | 326 | 0.0 | 1.0 | 0.00 | 0.05 | 0.05 | 93 | 1012.4 |
| 20260506201505 | 62 | 0 | 0.0 | 0.0 | 0.00 | 0.05 | 0.05 | 93 | 1012.3 |
| 20260506201404 | 62 | 0 | 0.0 | 0.0 | 0.00 | 0.05 | 0.05 | 93 | 1012.2 |
| 20260506201304 | 62 | 0 | 0.0 | 0.0 | 0.00 | 0.05 | 0.05 | 93 | 1012.2 |
| 20260506201206 | 62 | 0 | 0.0 | 0.0 | 0.00 | 0.05 | 0.05 | 93 | 1012.3 |
| 20260506201106 | 62 | 327 | 0.0 | 1.0 | 0.00 | 0.05 | 0.05 | 93 | 1012.3 |
| 20260506201005 | 62 | 326 | 0.0 | 1.0 | 0.00 | 0.05 | 0.05 | 93 | 1012.3 |
| 20260506200919 | 62 | 326 | 0.0 | 1.0 | 0.00 | 0.05 | 0.05 | 93 | 1012.3 |
| 20260506200905 | 62 | 326 | 0.0 | 1.0 | 0.00 | 0.05 | 0.05 | 93 | 1012.4 |
| 20260506200819 | 62 | 326 | 0.0 | 1.0 | 0.00 | 0.05 | 0.05 | 93 | 1012.4 |
| 20260506200805 | 62 | 326 | 0.0 | 1.0 | 0.00 | 0.05 | 0.05 | 93 | 1012.3 |
| 20260506200519 | 62 | 326 | 0.0 | 1.0 | 0.00 | 0.05 | 0.05 | 93 | 1012.2 |
| 20260506200505 | 62 | 326 | 0.0 | 1.0 | 0.00 | 0.05 | 0.05 | 93 | 1012.0 |
| 20260506200405 | 62 | 326 | 0.0 | 1.0 | 0.00 | 0.05 | 0.05 | 93 | 1012.2 |
| 20260506200318 | 62 | 326 | 0.0 | 1.0 | 0.00 | 0.05 | 0.05 | 93 | 1012.2 |
| 20260506200205 | 62 | 326 | 0.0 | 1.0 | 0.00 | 0.05 | 0.05 | 93 | 1012.0 |
| 20260506200005 | 62 | 326 | 0.0 | 1.0 | 0.00 | 0.05 | 0.05 | 93 | 1012.0 |
| 20260506195904 | 62 | 326 | 0.0 | 1.0 | 0.00 | 0.05 | 0.05 | 93 | 1012.0 |
| 20260506195805 | 62 | 327 | 0.0 | 1.0 | 0.00 | 0.05 | 0.05 | 93 | 1012.0 |
| 20260506195706 | 62 | 327 | 0.0 | 1.0 | 0.00 | 0.05 | 0.05 | 93 | 1012.2 |
| 20260506195604 | 62 | 327 | 0.0 | 1.0 | 0.00 | 0.05 | 0.05 | 93 | 1012.3 |
| 20260506195505 | 62 | 327 | 0.0 | 1.0 | 0.00 | 0.05 | 0.05 | 93 | 1012.3 |
| 20260506195404 | 62 | 327 | 0.0 | 1.0 | 0.00 | 0.05 | 0.05 | 93 | 1012.4 |
| 20260506195306 | 62 | 327 | 0.0 | 1.0 | 0.00 | 0.05 | 0.05 | 93 | 1011.9 |
| 20260506195204 | 62 | 327 | 0.0 | 1.0 | 0.00 | 0.05 | 0.05 | 93 | 1012.0 |
| 20260506195105 | 62 | 327 | 0.0 | 1.0 | 0.00 | 0.05 | 0.05 | 93 | 1012.1 |
| 20260506195004 | 62 | 327 | 0.0 | 1.0 | 0.00 | 0.05 | 0.05 | 93 | 1012.2 |
| 20260506194905 | 62 | 327 | 0.0 | 1.0 | 0.00 | 0.05 | 0.05 | 93 | 1012.3 |
| 20260506194805 | 62 | 327 | 0.0 | 1.0 | 0.00 | 0.05 | 0.05 | 93 | 1012.0 |
| 20260506194719 | 62 | 327 | 1.0 | 1.0 | 0.00 | 0.05 | 0.05 | 93 | 1012.0 |
| 20260506194704 | 62 | 327 | 1.0 | 1.0 | 0.00 | 0.05 | 0.05 | 93 | 1012.2 |
| 20260506194606 | 62 | 327 | 1.0 | 1.0 | 0.00 | 0.05 | 0.05 | 93 | 1012.2 |
| 20260506194519 | 62 | 327 | 1.0 | 1.0 | 0.00 | 0.05 | 0.05 | 93 | 1012.2 |
| 20260506194405 | 62 | 327 | 1.0 | 1.0 | 0.00 | 0.05 | 0.05 | 93 | 1012.1 |
| 20260506194220 | 62 | 328 | 1.0 | 1.0 | 0.00 | 0.05 | 0.05 | 93 | 1012.1 |
| 20260506194205 | 62 | 328 | 1.0 | 1.0 | 0.00 | 0.05 | 0.05 | 93 | 1012.2 |
| 20260506194104 | 62 | 328 | 1.0 | 1.0 | 0.00 | 0.05 | 0.05 | 93 | 1012.2 |
| 20260506193905 | 62 | 327 | 1.0 | 1.0 | 0.00 | 0.05 | 0.05 | 93 | 1012.1 |
| 20260506193805 | 62 | 327 | 1.0 | 1.0 | 0.00 | 0.05 | 0.05 | 93 | 1012.2 |
| 20260506193705 | 62 | 327 | 1.0 | 1.0 | 0.00 | 0.05 | 0.05 | 93 | 1012.3 |
| 20260506193618 | 62 | 327 | 1.0 | 1.0 | 0.00 | 0.05 | 0.05 | 93 | 1012.3 |
| 20260506193606 | 62 | 327 | 0.0 | 1.0 | 0.00 | 0.05 | 0.05 | 93 | 1012.0 |
| 20260506193504 | 62 | 327 | 0.0 | 1.0 | 0.00 | 0.05 | 0.05 | 93 | 1012.3 |
| 20260506193306 | 62 | 327 | 0.0 | 1.0 | 0.00 | 0.05 | 0.05 | 93 | 1012.3 |
| 20260506193205 | 62 | 327 | 0.0 | 1.0 | 0.00 | 0.05 | 0.05 | 93 | 1012.2 |
| 20260506193105 | 62 | 327 | 0.0 | 1.0 | 0.00 | 0.05 | 0.05 | 93 | 1012.3 |
| 20260506193005 | 62 | 327 | 0.0 | 1.0 | 0.00 | 0.05 | 0.05 | 93 | 1012.5 |
| 20260506192905 | 62 | 327 | 0.0 | 1.0 | 0.00 | 0.05 | 0.05 | 93 | 1012.4 |
| 20260506192805 | 62 | 0 | 0.0 | 0.0 | 0.00 | 0.05 | 0.05 | 93 | 1012.2 |
| 20260506192705 | 62 | 0 | 0.0 | 0.0 | 0.00 | 0.05 | 0.05 | 93 | 1012.5 |
| 20260506192606 | 62 | 0 | 0.0 | 0.0 | 0.00 | 0.05 | 0.05 | 93 | 1012.3 |
| 20260506192505 | 62 | 0 | 0.0 | 0.0 | 0.00 | 0.05 | 0.05 | 93 | 1012.4 |
| 20260506192405 | 62 | 0 | 0.0 | 0.0 | 0.00 | 0.05 | 0.05 | 93 | 1012.4 |
| 20260506192306 | 62 | 0 | 0.0 | 0.0 | 0.00 | 0.05 | 0.05 | 93 | 1012.4 |
| 20260506192104 | 62 | 0 | 0.0 | 0.0 | 0.00 | 0.05 | 0.05 | 93 | 1012.4 |
| 20260506192019 | 62 | 0 | 0.0 | 0.0 | 0.00 | 0.05 | 0.05 | 93 | 1012.4 |
| 20260506192004 | 62 | 0 | 0.0 | 0.0 | 0.00 | 0.05 | 0.05 | 93 | 1012.3 |
| 20260506191904 | 62 | 0 | 0.0 | 0.0 | 0.00 | 0.05 | 0.05 | 93 | 1012.3 |
| 20260506191705 | 62 | 328 | 0.0 | 1.0 | 0.00 | 0.05 | 0.05 | 93 | 1012.3 |
| 20260506191605 | 62 | 328 | 0.0 | 1.0 | 0.00 | 0.05 | 0.05 | 93 | 1012.2 |
| 20260506191505 | 62 | 328 | 0.0 | 1.0 | 0.00 | 0.05 | 0.05 | 93 | 1012.1 |
| 20260506191406 | 62 | 328 | 0.0 | 1.0 | 0.00 | 0.05 | 0.05 | 93 | 1012.2 |
| 20260506191305 | 62 | 328 | 0.0 | 1.0 | 0.00 | 0.05 | 0.05 | 93 | 1012.2 |
| 20260506191205 | 62 | 328 | 0.0 | 1.0 | 0.00 | 0.05 | 0.05 | 93 | 1012.1 |
| 20260506191105 | 62 | 328 | 0.0 | 1.0 | 0.00 | 0.05 | 0.05 | 93 | 1012.2 |
| 20260506191005 | 62 | 328 | 0.0 | 1.0 | 0.00 | 0.05 | 0.05 | 93 | 1012.0 |
| 20260506190905 | 62 | 328 | 0.0 | 1.0 | 0.00 | 0.05 | 0.05 | 93 | 1012.0 |
| 20260506190805 | 62 | 328 | 0.0 | 1.0 | 0.00 | 0.05 | 0.05 | 93 | 1011.9 |
| 20260506190605 | 62 | 328 | 0.0 | 1.0 | 0.00 | 0.05 | 0.05 | 93 | 1012.1 |
| 20260506190505 | 62 | 328 | 0.0 | 1.0 | 0.00 | 0.05 | 0.05 | 93 | 1011.9 |
| 20260506190404 | 62 | 328 | 0.0 | 1.0 | 0.00 | 0.05 | 0.05 | 93 | 1012.3 |
| 20260506190305 | 62 | 328 | 0.0 | 1.0 | 0.00 | 0.05 | 0.05 | 93 | 1012.0 |
| 20260506190205 | 62 | 328 | 0.0 | 1.0 | 0.00 | 0.05 | 0.05 | 93 | 1012.3 |
| 20260506190105 | 62 | 328 | 0.0 | 1.0 | 0.00 | 0.05 | 0.05 | 93 | 1012.1 |
| 20260506190006 | 62 | 328 | 0.0 | 1.0 | 0.00 | 0.05 | 0.05 | 93 | 1012.1 |
| 20260506185905 | 62 | 328 | 0.0 | 1.0 | 0.00 | 0.05 | 0.05 | 93 | 1012.1 |
| 20260506185805 | 62 | 327 | 0.0 | 1.0 | 0.00 | 0.05 | 0.05 | 93 | 1011.9 |
| 20260506185706 | 62 | 327 | 0.0 | 1.0 | 0.00 | 0.05 | 0.05 | 93 | 1012.0 |
| 20260506185605 | 62 | 327 | 0.0 | 1.0 | 0.00 | 0.05 | 0.05 | 93 | 1012.1 |
| 20260506185505 | 62 | 327 | 0.0 | 1.0 | 0.00 | 0.05 | 0.05 | 93 | 1012.1 |
| 20260506185404 | 62 | 327 | 0.0 | 1.0 | 0.00 | 0.05 | 0.05 | 93 | 1012.1 |
| 20260506185205 | 62 | 327 | 0.0 | 1.0 | 0.00 | 0.05 | 0.05 | 93 | 1012.2 |
| 20260506185106 | 62 | 327 | 0.0 | 1.0 | 0.00 | 0.05 | 0.05 | 93 | 1012.2 |
| 20260506184906 | 62 | 327 | 0.0 | 1.0 | 0.00 | 0.05 | 0.05 | 93 | 1012.2 |
| 20260506184819 | 62 | 327 | 0.0 | 1.0 | 0.00 | 0.05 | 0.05 | 93 | 1012.0 |
| 20260506184805 | 62 | 327 | 0.0 | 1.0 | 0.00 | 0.05 | 0.05 | 93 | 1012.1 |
| 20260506184704 | 62 | 327 | 0.0 | 1.0 | 0.00 | 0.05 | 0.05 | 93 | 1012.1 |
| 20260506184404 | 62 | 327 | 0.0 | 1.0 | 0.00 | 0.05 | 0.05 | 93 | 1012.2 |
| 20260506184305 | 62 | 327 | 0.0 | 1.0 | 0.00 | 0.05 | 0.05 | 93 | 1011.9 |
| 20260506184204 | 62 | 327 | 0.0 | 1.0 | 0.00 | 0.05 | 0.05 | 93 | 1011.9 |
| 20260506184119 | 62 | 327 | 0.0 | 1.0 | 0.00 | 0.05 | 0.05 | 93 | 1011.9 |
| 20260506184106 | 62 | 327 | 0.0 | 1.0 | 0.00 | 0.05 | 0.05 | 93 | 1012.0 |
| 20260506184019 | 62 | 327 | 0.0 | 1.0 | 0.00 | 0.05 | 0.05 | 93 | 1012.0 |
| 20260506184004 | 62 | 327 | 0.0 | 1.0 | 0.00 | 0.05 | 0.05 | 93 | 1012.2 |
| 20260506183705 | 62 | 327 | 0.0 | 1.0 | 0.00 | 0.05 | 0.05 | 93 | 1011.9 |
| 20260506183620 | 62 | 327 | 0.0 | 1.0 | 0.00 | 0.05 | 0.05 | 93 | 1011.9 |
| 20260506183604 | 62 | 327 | 0.0 | 1.0 | 0.00 | 0.05 | 0.05 | 93 | 1011.8 |
| 20260506183504 | 62 | 327 | 0.0 | 1.0 | 0.00 | 0.05 | 0.05 | 93 | 1012.1 |
| 20260506183320 | 62 | 327 | 1.0 | 1.0 | 0.00 | 0.05 | 0.05 | 93 | 1012.1 |
| 20260506183305 | 62 | 327 | 1.0 | 1.0 | 0.00 | 0.05 | 0.05 | 93 | 1012.2 |
| 20260506183204 | 62 | 327 | 1.0 | 1.0 | 0.00 | 0.05 | 0.05 | 93 | 1012.0 |
| 20260506183006 | 62 | 327 | 0.0 | 1.0 | 0.00 | 0.05 | 0.05 | 93 | 1012.1 |
| 20260506182904 | 62 | 328 | 0.0 | 1.0 | 0.00 | 0.05 | 0.05 | 93 | 1012.2 |
| 20260506182805 | 62 | 328 | 0.0 | 1.0 | 0.00 | 0.05 | 0.05 | 93 | 1012.1 |
| 20260506182705 | 62 | 328 | 0.0 | 1.0 | 0.00 | 0.05 | 0.05 | 93 | 1012.1 |
| 20260506182604 | 62 | 328 | 0.0 | 1.0 | 0.00 | 0.05 | 0.05 | 93 | 1012.0 |
| 20260506182505 | 62 | 328 | 0.0 | 1.0 | 0.00 | 0.05 | 0.05 | 93 | 1012.1 |
| 20260506182404 | 62 | 328 | 0.0 | 1.0 | 0.00 | 0.05 | 0.05 | 93 | 1012.1 |
| 20260506182307 | 62 | 328 | 0.0 | 1.0 | 0.00 | 0.05 | 0.05 | 93 | 1012.1 |
| 20260506182105 | 62 | 327 | 0.0 | 1.0 | 0.00 | 0.05 | 0.05 | 93 | 1012.2 |
| 20260506182005 | 62 | 327 | 0.0 | 1.0 | 0.00 | 0.05 | 0.05 | 93 | 1012.2 |
| 20260506181904 | 62 | 327 | 0.0 | 1.0 | 0.00 | 0.05 | 0.05 | 93 | 1012.4 |
| 20260506181806 | 62 | 327 | 0.0 | 1.0 | 0.00 | 0.05 | 0.05 | 93 | 1012.3 |
| 20260506181705 | 62 | 327 | 0.0 | 1.0 | 0.00 | 0.05 | 0.05 | 93 | 1012.2 |
| 20260506181605 | 62 | 327 | 0.0 | 1.0 | 0.00 | 0.05 | 0.05 | 93 | 1012.2 |
| 20260506181506 | 62 | 327 | 0.0 | 1.0 | 0.00 | 0.05 | 0.05 | 93 | 1012.2 |
| 20260506181304 | 62 | 327 | 0.0 | 1.0 | 0.00 | 0.05 | 0.05 | 93 | 1012.2 |
| 20260506181205 | 62 | 327 | 0.0 | 1.0 | 0.00 | 0.05 | 0.05 | 93 | 1012.2 |
| 20260506181105 | 62 | 327 | 0.0 | 2.0 | 0.00 | 0.05 | 0.05 | 93 | 1012.3 |
| 20260506181005 | 62 | 327 | 0.0 | 2.0 | 0.00 | 0.05 | 0.05 | 93 | 1012.2 |
| 20260506180904 | 62 | 327 | 0.0 | 2.0 | 0.00 | 0.05 | 0.05 | 93 | 1012.1 |
| 20260506180806 | 62 | 327 | 0.0 | 2.0 | 0.00 | 0.05 | 0.05 | 93 | 1012.2 |
| 20260506180705 | 62 | 327 | 0.0 | 2.0 | 0.00 | 0.05 | 0.05 | 93 | 1012.1 |
| 20260506180606 | 62 | 327 | 0.0 | 2.0 | 0.00 | 0.05 | 0.05 | 93 | 1012.3 |